| time (UTC) | temp F | wind direction | speed MPH | gust MPH | rain 1hr in | rain 24hr in | rain mn in | humidity % | barometer mb |
| 20260906185903 | 72 | 98 | 0.0 | 1.0 | 0.00 | 0.00 | 0.00 | 76 | 1020.2 |
| 20260906185800 | 72 | 98 | 0.0 | 1.0 | 0.00 | 0.00 | 0.00 | 76 | 1020.2 |
| 20260906185700 | 72 | 98 | 0.0 | 2.0 | 0.00 | 0.00 | 0.00 | 75 | 1020.1 |
| 20260906185602 | 72 | 98 | 0.0 | 2.0 | 0.00 | 0.00 | 0.00 | 75 | 1020.1 |
| 20260906185406 | 72 | 98 | 0.0 | 2.0 | 0.00 | 0.00 | 0.00 | 75 | 1020.1 |
| 20260906185308 | 72 | 98 | 0.0 | 2.0 | 0.00 | 0.00 | 0.00 | 75 | 1020.1 |
| 20260906185108 | 73 | 98 | 0.0 | 2.0 | 0.00 | 0.00 | 0.00 | 74 | 1020.1 |
| 20260906185006 | 73 | 98 | 0.0 | 2.0 | 0.00 | 0.00 | 0.00 | 74 | 1020.1 |
| 20260906184906 | 73 | 98 | 0.0 | 2.0 | 0.00 | 0.00 | 0.00 | 74 | 1020.1 |
| 20260906184808 | 73 | 98 | 0.0 | 2.0 | 0.00 | 0.00 | 0.00 | 74 | 1020.0 |
| 20260906184705 | 73 | 98 | 0.0 | 2.0 | 0.00 | 0.00 | 0.00 | 74 | 1020.0 |
| 20260906184605 | 73 | 98 | 0.0 | 2.0 | 0.00 | 0.00 | 0.00 | 74 | 1020.0 |
| 20260906184509 | 73 | 98 | 1.0 | 2.0 | 0.00 | 0.00 | 0.00 | 74 | 1020.0 |
| 20260906184208 | 73 | 98 | 1.0 | 3.0 | 0.00 | 0.00 | 0.00 | 73 | 1020.0 |
| 20260906184106 | 73 | 98 | 0.0 | 3.0 | 0.00 | 0.00 | 0.00 | 73 | 1020.0 |
| 20260906184006 | 73 | 98 | 1.0 | 3.0 | 0.00 | 0.00 | 0.00 | 73 | 1020.0 |
| 20260906183908 | 73 | 98 | 1.0 | 3.0 | 0.00 | 0.00 | 0.00 | 73 | 1020.0 |
| 20260906183805 | 74 | 98 | 1.0 | 3.0 | 0.00 | 0.00 | 0.00 | 73 | 1020.0 |
| 20260906183706 | 74 | 98 | 1.0 | 3.0 | 0.00 | 0.00 | 0.00 | 73 | 1020.0 |
| 20260906183608 | 74 | 98 | 1.0 | 3.0 | 0.00 | 0.00 | 0.00 | 73 | 1020.0 |
| 20260906183505 | 74 | 98 | 0.0 | 3.0 | 0.00 | 0.00 | 0.00 | 73 | 1020.0 |
| 20260906183405 | 74 | 98 | 2.0 | 3.0 | 0.00 | 0.00 | 0.00 | 73 | 1020.0 |
| 20260906183308 | 74 | 98 | 2.0 | 3.0 | 0.00 | 0.00 | 0.00 | 73 | 1020.0 |
| 20260906183206 | 74 | 98 | 1.0 | 3.0 | 0.00 | 0.00 | 0.00 | 73 | 1019.9 |
| 20260906183105 | 74 | 98 | 1.0 | 3.0 | 0.00 | 0.00 | 0.00 | 73 | 1020.0 |
| 20260906183009 | 74 | 98 | 1.0 | 3.0 | 0.00 | 0.00 | 0.00 | 73 | 1019.9 |
| 20260906182905 | 74 | 98 | 1.0 | 3.0 | 0.00 | 0.00 | 0.00 | 73 | 1019.9 |
| 20260906182805 | 75 | 98 | 1.0 | 3.0 | 0.00 | 0.00 | 0.00 | 72 | 1019.9 |
| 20260906182708 | 75 | 98 | 1.0 | 3.0 | 0.00 | 0.00 | 0.00 | 72 | 1019.9 |
| 20260906182606 | 75 | 98 | 2.0 | 3.0 | 0.00 | 0.00 | 0.00 | 72 | 1019.9 |
| 20260906182506 | 75 | 98 | 2.0 | 3.0 | 0.00 | 0.00 | 0.00 | 71 | 1019.9 |
| 20260906182306 | 76 | 98 | 3.0 | 3.0 | 0.00 | 0.00 | 0.00 | 71 | 1019.9 |
| 20260906182205 | 76 | 98 | 2.0 | 3.0 | 0.00 | 0.00 | 0.00 | 70 | 1019.8 |
| 20260906182109 | 76 | 98 | 2.0 | 5.0 | 0.00 | 0.00 | 0.00 | 70 | 1019.8 |
| 20260906182006 | 76 | 98 | 2.0 | 5.0 | 0.00 | 0.00 | 0.00 | 70 | 1019.8 |
| 20260906181905 | 76 | 98 | 3.0 | 5.0 | 0.00 | 0.00 | 0.00 | 70 | 1019.8 |
| 20260906181808 | 76 | 98 | 2.0 | 5.0 | 0.00 | 0.00 | 0.00 | 69 | 1019.8 |
| 20260906181705 | 76 | 98 | 3.0 | 5.0 | 0.00 | 0.00 | 0.00 | 69 | 1019.8 |
| 20260906181606 | 77 | 98 | 2.0 | 5.0 | 0.00 | 0.00 | 0.00 | 69 | 1019.8 |
| 20260906181508 | 77 | 98 | 3.0 | 5.0 | 0.00 | 0.00 | 0.00 | 68 | 1019.8 |
| 20260906181405 | 77 | 98 | 2.0 | 5.0 | 0.00 | 0.00 | 0.00 | 68 | 1019.8 |
| 20260906181208 | 77 | 98 | 3.0 | 5.0 | 0.00 | 0.00 | 0.00 | 68 | 1019.7 |
| 20260906181104 | 77 | 98 | 2.0 | 5.0 | 0.00 | 0.00 | 0.00 | 67 | 1019.7 |
| 20260906180908 | 78 | 98 | 3.0 | 5.0 | 0.00 | 0.00 | 0.00 | 67 | 1019.7 |
| 20260906180805 | 78 | 98 | 2.0 | 6.0 | 0.00 | 0.00 | 0.00 | 67 | 1019.8 |
| 20260906180506 | 78 | 98 | 3.0 | 6.0 | 0.00 | 0.00 | 0.00 | 66 | 1019.7 |
| 20260906180308 | 78 | 98 | 2.0 | 6.0 | 0.00 | 0.00 | 0.00 | 66 | 1019.7 |
| 20260906180121 | 79 | 98 | 5.0 | 6.0 | 0.00 | 0.00 | 0.00 | 65 | 1019.6 |
| 20260906180010 | 79 | 98 | 3.0 | 6.0 | 0.00 | 0.00 | 0.00 | 65 | 1019.6 |
| 20260906175805 | 79 | 85 | 5.0 | 6.0 | 0.00 | 0.00 | 0.00 | 64 | 1019.7 |
| 20260906175605 | 79 | 71 | 3.0 | 7.0 | 0.00 | 0.00 | 0.00 | 64 | 1019.6 |
| 20260906175506 | 79 | 71 | 3.0 | 7.0 | 0.00 | 0.00 | 0.00 | 64 | 1019.7 |
| 20260906175408 | 79 | 71 | 4.0 | 7.0 | 0.00 | 0.00 | 0.00 | 64 | 1019.7 |
| 20260906175306 | 79 | 71 | 3.0 | 7.0 | 0.00 | 0.00 | 0.00 | 64 | 1019.6 |
| 20260906175109 | 80 | 71 | 3.0 | 7.0 | 0.00 | 0.00 | 0.00 | 63 | 1019.6 |
| 20260906175006 | 80 | 71 | 4.0 | 7.0 | 0.00 | 0.00 | 0.00 | 63 | 1019.6 |
| 20260906174905 | 80 | 71 | 5.0 | 7.0 | 0.00 | 0.00 | 0.00 | 63 | 1019.7 |
| 20260906174809 | 80 | 71 | 3.0 | 7.0 | 0.00 | 0.00 | 0.00 | 63 | 1019.6 |
| 20260906174706 | 80 | 71 | 3.0 | 7.0 | 0.00 | 0.00 | 0.00 | 62 | 1019.6 |
| 20260906174605 | 80 | 95 | 5.0 | 5.0 | 0.00 | 0.00 | 0.00 | 62 | 1019.6 |
| 20260906174508 | 80 | 73 | 5.0 | 6.0 | 0.00 | 0.00 | 0.00 | 62 | 1019.6 |
| 20260906174406 | 81 | 74 | 3.0 | 5.0 | 0.00 | 0.00 | 0.00 | 61 | 1019.6 |
| 20260906174306 | 81 | 74 | 4.0 | 5.0 | 0.00 | 0.00 | 0.00 | 62 | 1019.6 |
| 20260906174208 | 81 | 74 | 3.0 | 5.0 | 0.00 | 0.00 | 0.00 | 61 | 1019.6 |
| 20260906174105 | 81 | 74 | 4.0 | 5.0 | 0.00 | 0.00 | 0.00 | 61 | 1019.6 |
| 20260906174006 | 81 | 74 | 3.0 | 5.0 | 0.00 | 0.00 | 0.00 | 61 | 1019.6 |
| 20260906173909 | 81 | 74 | 3.0 | 7.0 | 0.00 | 0.00 | 0.00 | 61 | 1019.5 |
| 20260906173705 | 81 | 74 | 4.0 | 7.0 | 0.00 | 0.00 | 0.00 | 60 | 1019.6 |
| 20260906173607 | 81 | 74 | 3.0 | 7.0 | 0.00 | 0.00 | 0.00 | 60 | 1019.5 |
| 20260906173405 | 82 | 74 | 4.0 | 8.0 | 0.00 | 0.00 | 0.00 | 60 | 1019.6 |
| 20260906173308 | 82 | 74 | 3.0 | 8.0 | 0.00 | 0.00 | 0.00 | 60 | 1019.6 |
| 20260906173206 | 82 | 74 | 4.0 | 8.0 | 0.00 | 0.00 | 0.00 | 59 | 1019.6 |
| 20260906173010 | 82 | 74 | 5.0 | 8.0 | 0.00 | 0.00 | 0.00 | 59 | 1019.6 |
| 20260906172905 | 82 | 74 | 7.0 | 8.0 | 0.00 | 0.00 | 0.00 | 59 | 1019.6 |
| 20260906172805 | 82 | 74 | 4.0 | 9.0 | 0.00 | 0.00 | 0.00 | 59 | 1019.6 |
| 20260906172708 | 82 | 87 | 6.0 | 9.0 | 0.00 | 0.00 | 0.00 | 59 | 1019.5 |
| 20260906172605 | 82 | 78 | 7.0 | 9.0 | 0.00 | 0.00 | 0.00 | 58 | 1019.6 |
| 20260906172506 | 82 | 80 | 8.0 | 9.0 | 0.00 | 0.00 | 0.00 | 58 | 1019.5 |
| 20260906172408 | 83 | 84 | 8.0 | 9.0 | 0.00 | 0.00 | 0.00 | 58 | 1019.5 |
| 20260906172205 | 83 | 74 | 5.0 | 9.0 | 0.00 | 0.00 | 0.00 | 58 | 1019.5 |
| 20260906172108 | 83 | 52 | 4.0 | 9.0 | 0.00 | 0.00 | 0.00 | 58 | 1019.5 |
| 20260906172006 | 83 | 74 | 5.0 | 9.0 | 0.00 | 0.00 | 0.00 | 57 | 1019.6 |
| 20260906171905 | 83 | 76 | 7.0 | 9.0 | 0.00 | 0.00 | 0.00 | 57 | 1019.5 |
| 20260906171807 | 83 | 61 | 7.0 | 9.0 | 0.00 | 0.00 | 0.00 | 57 | 1019.6 |
| 20260906171705 | 83 | 78 | 5.0 | 9.0 | 0.00 | 0.00 | 0.00 | 57 | 1019.5 |
| 20260906171605 | 83 | 74 | 7.0 | 9.0 | 0.00 | 0.00 | 0.00 | 57 | 1019.5 |
| 20260906171508 | 83 | 72 | 5.0 | 9.0 | 0.00 | 0.00 | 0.00 | 57 | 1019.6 |
| 20260906171405 | 83 | 58 | 7.0 | 9.0 | 0.00 | 0.00 | 0.00 | 57 | 1019.6 |
| 20260906171305 | 83 | 79 | 2.0 | 9.0 | 0.00 | 0.00 | 0.00 | 56 | 1019.6 |
| 20260906171208 | 84 | 82 | 7.0 | 9.0 | 0.00 | 0.00 | 0.00 | 56 | 1019.6 |
| 20260906171106 | 84 | 78 | 8.0 | 10.0 | 0.00 | 0.00 | 0.00 | 56 | 1019.5 |
| 20260906171007 | 84 | 76 | 9.0 | 10.0 | 0.00 | 0.00 | 0.00 | 56 | 1019.5 |
| 20260906170908 | 84 | 75 | 5.0 | 11.0 | 0.00 | 0.00 | 0.00 | 56 | 1019.5 |
| 20260906170806 | 84 | 71 | 4.0 | 11.0 | 0.00 | 0.00 | 0.00 | 56 | 1019.5 |
| 20260906170706 | 84 | 67 | 5.0 | 11.0 | 0.00 | 0.00 | 0.00 | 56 | 1019.5 |
| 20260906170608 | 84 | 68 | 5.0 | 11.0 | 0.00 | 0.00 | 0.00 | 56 | 1019.5 |
| 20260906170507 | 84 | 69 | 3.0 | 11.0 | 0.00 | 0.00 | 0.00 | 56 | 1019.5 |
| 20260906170406 | 84 | 78 | 5.0 | 11.0 | 0.00 | 0.00 | 0.00 | 56 | 1019.4 |
| 20260906170307 | 84 | 78 | 7.0 | 11.0 | 0.00 | 0.00 | 0.00 | 56 | 1019.4 |
| 20260906170106 | 84 | 34 | 7.0 | 12.0 | 0.00 | 0.00 | 0.00 | 55 | 1019.4 |
| 20260906170020 | 84 | 68 | 3.0 | 12.0 | 0.00 | 0.00 | 0.00 | 55 | 1019.4 |
| 20260906165905 | 84 | 72 | 7.0 | 12.0 | 0.00 | 0.00 | 0.00 | 55 | 1019.4 |
| 20260906165805 | 85 | 59 | 7.0 | 12.0 | 0.00 | 0.00 | 0.00 | 55 | 1019.4 |
| 20260906165708 | 85 | 82 | 6.0 | 12.0 | 0.00 | 0.00 | 0.00 | 55 | 1019.4 |
| 20260906165605 | 85 | 66 | 7.0 | 12.0 | 0.00 | 0.00 | 0.00 | 54 | 1019.4 |
| 20260906165506 | 85 | 60 | 9.0 | 12.0 | 0.00 | 0.00 | 0.00 | 54 | 1019.4 |
| 20260906165408 | 85 | 82 | 8.0 | 12.0 | 0.00 | 0.00 | 0.00 | 54 | 1019.4 |
| 20260906165205 | 85 | 74 | 7.0 | 12.0 | 0.00 | 0.00 | 0.00 | 54 | 1019.4 |
| 20260906165108 | 85 | 78 | 7.0 | 12.0 | 0.00 | 0.00 | 0.00 | 53 | 1019.4 |
| 20260906165006 | 85 | 75 | 10.0 | 12.0 | 0.00 | 0.00 | 0.00 | 53 | 1019.4 |
| 20260906164905 | 85 | 64 | 7.0 | 12.0 | 0.00 | 0.00 | 0.00 | 53 | 1019.4 |
| 20260906164808 | 85 | 74 | 8.0 | 14.0 | 0.00 | 0.00 | 0.00 | 53 | 1019.4 |
| 20260906164705 | 85 | 34 | 4.0 | 14.0 | 0.00 | 0.00 | 0.00 | 53 | 1019.4 |
| 20260906164605 | 85 | 83 | 9.0 | 14.0 | 0.00 | 0.00 | 0.00 | 52 | 1019.4 |
| 20260906164508 | 85 | 82 | 8.0 | 14.0 | 0.00 | 0.00 | 0.00 | 52 | 1019.4 |
| 20260906164405 | 85 | 58 | 8.0 | 14.0 | 0.00 | 0.00 | 0.00 | 52 | 1019.4 |
| 20260906164305 | 86 | 82 | 8.0 | 14.0 | 0.00 | 0.00 | 0.00 | 51 | 1019.4 |
| 20260906164106 | 86 | 65 | 8.0 | 14.0 | 0.00 | 0.00 | 0.00 | 52 | 1019.4 |
| 20260906163908 | 86 | 91 | 5.0 | 14.0 | 0.00 | 0.00 | 0.00 | 52 | 1019.4 |
| 20260906163705 | 86 | 69 | 5.0 | 13.0 | 0.00 | 0.00 | 0.00 | 51 | 1019.4 |
| 20260906163608 | 86 | 79 | 6.0 | 13.0 | 0.00 | 0.00 | 0.00 | 51 | 1019.4 |
| 20260906163506 | 86 | 49 | 7.0 | 14.0 | 0.00 | 0.00 | 0.00 | 51 | 1019.4 |
| 20260906163405 | 86 | 59 | 10.0 | 14.0 | 0.00 | 0.00 | 0.00 | 51 | 1019.3 |
| 20260906163308 | 86 | 80 | 11.0 | 14.0 | 0.00 | 0.00 | 0.00 | 52 | 1019.4 |
| 20260906163205 | 86 | 80 | 13.0 | 14.0 | 0.00 | 0.00 | 0.00 | 52 | 1019.3 |
| 20260906163105 | 86 | 28 | 7.0 | 14.0 | 0.00 | 0.00 | 0.00 | 52 | 1019.3 |
| 20260906163010 | 86 | 46 | 7.0 | 14.0 | 0.00 | 0.00 | 0.00 | 51 | 1019.3 |
| 20260906162905 | 86 | 70 | 5.0 | 14.0 | 0.00 | 0.00 | 0.00 | 51 | 1019.3 |
| 20260906162805 | 86 | 67 | 7.0 | 14.0 | 0.00 | 0.00 | 0.00 | 51 | 1019.4 |
| 20260906162708 | 86 | 68 | 11.0 | 14.0 | 0.00 | 0.00 | 0.00 | 50 | 1019.4 |
| 20260906162605 | 87 | 63 | 9.0 | 14.0 | 0.00 | 0.00 | 0.00 | 50 | 1019.3 |
| 20260906162408 | 87 | 44 | 11.0 | 14.0 | 0.00 | 0.00 | 0.00 | 50 | 1019.3 |
| 20260906162306 | 87 | 57 | 9.0 | 14.0 | 0.00 | 0.00 | 0.00 | 50 | 1019.3 |
| 20260906162205 | 87 | 74 | 12.0 | 14.0 | 0.00 | 0.00 | 0.00 | 50 | 1019.4 |
| 20260906162116 | 87 | 88 | 9.0 | 13.0 | 0.00 | 0.00 | 0.00 | 49 | 1019.4 |
| 20260906162006 | 87 | 51 | 10.0 | 12.0 | 0.00 | 0.00 | 0.00 | 50 | 1019.3 |
| 20260906161905 | 87 | 49 | 7.0 | 12.0 | 0.00 | 0.00 | 0.00 | 51 | 1019.3 |
| 20260906161808 | 87 | 48 | 10.0 | 12.0 | 0.00 | 0.00 | 0.00 | 50 | 1019.2 |
| 20260906161707 | 87 | 34 | 5.0 | 12.0 | 0.00 | 0.00 | 0.00 | 50 | 1019.3 |
| 20260906161605 | 87 | 43 | 8.0 | 12.0 | 0.00 | 0.00 | 0.00 | 50 | 1019.3 |
| 20260906161508 | 87 | 36 | 10.0 | 12.0 | 0.00 | 0.00 | 0.00 | 50 | 1019.3 |
| 20260906161306 | 87 | 36 | 5.0 | 12.0 | 0.00 | 0.00 | 0.00 | 50 | 1019.3 |
| 20260906161207 | 87 | 60 | 5.0 | 12.0 | 0.00 | 0.00 | 0.00 | 49 | 1019.3 |
| 20260906161104 | 87 | 33 | 11.0 | 12.0 | 0.00 | 0.00 | 0.00 | 49 | 1019.2 |
| 20260906160908 | 87 | 31 | 8.0 | 12.0 | 0.00 | 0.00 | 0.00 | 49 | 1019.3 |
| 20260906160805 | 87 | 32 | 9.0 | 12.0 | 0.00 | 0.00 | 0.00 | 49 | 1019.2 |
| 20260906160704 | 87 | 40 | 6.0 | 12.0 | 0.00 | 0.00 | 0.00 | 48 | 1019.3 |
| 20260906160507 | 88 | 32 | 7.0 | 14.0 | 0.00 | 0.00 | 0.00 | 48 | 1019.2 |
| 20260906160405 | 88 | 36 | 11.0 | 14.0 | 0.00 | 0.00 | 0.00 | 49 | 1019.2 |
| 20260906160309 | 88 | 28 | 8.0 | 14.0 | 0.00 | 0.00 | 0.00 | 48 | 1019.2 |
| 20260906160120 | 88 | 48 | 8.0 | 14.0 | 0.00 | 0.00 | 0.00 | 48 | 1019.2 |
| 20260906160012 | 88 | 34 | 5.0 | 14.0 | 0.00 | 0.00 | 0.00 | 48 | 1019.2 |
| 20260906155906 | 88 | 55 | 7.0 | 14.0 | 0.00 | 0.00 | 0.00 | 49 | 1019.3 |
| 20260906155805 | 88 | 77 | 11.0 | 14.0 | 0.00 | 0.00 | 0.00 | 48 | 1019.3 |
| 20260906155708 | 88 | 53 | 7.0 | 14.0 | 0.00 | 0.00 | 0.00 | 48 | 1019.2 |
| 20260906155605 | 88 | 61 | 9.0 | 14.0 | 0.00 | 0.00 | 0.00 | 48 | 1019.2 |
| 20260906155505 | 88 | 58 | 7.0 | 14.0 | 0.00 | 0.00 | 0.00 | 49 | 1019.3 |
| 20260906155407 | 88 | 76 | 5.0 | 14.0 | 0.00 | 0.00 | 0.00 | 48 | 1019.2 |
| 20260906155307 | 88 | 66 | 5.0 | 14.0 | 0.00 | 0.00 | 0.00 | 48 | 1019.3 |
| 20260906155205 | 88 | 91 | 6.0 | 14.0 | 0.00 | 0.00 | 0.00 | 49 | 1019.3 |
| 20260906155108 | 88 | 87 | 9.0 | 14.0 | 0.00 | 0.00 | 0.00 | 48 | 1019.3 |
| 20260906155006 | 88 | 84 | 6.0 | 14.0 | 0.00 | 0.00 | 0.00 | 48 | 1019.2 |
| 20260906154905 | 88 | 61 | 8.0 | 14.0 | 0.00 | 0.00 | 0.00 | 48 | 1019.3 |
| 20260906154808 | 88 | 79 | 14.0 | 14.0 | 0.00 | 0.00 | 0.00 | 48 | 1019.2 |
| 20260906154705 | 88 | 78 | 12.0 | 13.0 | 0.00 | 0.00 | 0.00 | 48 | 1019.2 |
| 20260906154605 | 88 | 38 | 6.0 | 13.0 | 0.00 | 0.00 | 0.00 | 47 | 1019.2 |
| 20260906154508 | 88 | 22 | 6.0 | 13.0 | 0.00 | 0.00 | 0.00 | 47 | 1019.3 |
| 20260906154208 | 88 | 36 | 10.0 | 13.0 | 0.00 | 0.00 | 0.00 | 47 | 1019.2 |
| 20260906153908 | 88 | 74 | 9.0 | 14.0 | 0.00 | 0.00 | 0.00 | 48 | 1019.1 |
| 20260906153805 | 88 | 74 | 7.0 | 14.0 | 0.00 | 0.00 | 0.00 | 47 | 1019.1 |
| 20260906153705 | 88 | 22 | 7.0 | 14.0 | 0.00 | 0.00 | 0.00 | 47 | 1019.2 |
| 20260906153609 | 88 | 52 | 6.0 | 14.0 | 0.00 | 0.00 | 0.00 | 47 | 1019.2 |
| 20260906153507 | 89 | 55 | 9.0 | 14.0 | 0.00 | 0.00 | 0.00 | 47 | 1019.1 |
| 20260906153405 | 89 | 51 | 10.0 | 14.0 | 0.00 | 0.00 | 0.00 | 47 | 1019.1 |
| 20260906153308 | 88 | 63 | 4.0 | 14.0 | 0.00 | 0.00 | 0.00 | 48 | 1019.1 |
| 20260906152905 | 88 | 41 | 8.0 | 13.0 | 0.00 | 0.00 | 0.00 | 47 | 1019.2 |
| 20260906152708 | 89 | 57 | 13.0 | 13.0 | 0.00 | 0.00 | 0.00 | 47 | 1019.2 |
| 20260906152605 | 89 | 49 | 9.0 | 11.0 | 0.00 | 0.00 | 0.00 | 47 | 1019.2 |
| 20260906152505 | 89 | 63 | 5.0 | 11.0 | 0.00 | 0.00 | 0.00 | 47 | 1019.2 |
| 20260906152408 | 89 | 39 | 6.0 | 11.0 | 0.00 | 0.00 | 0.00 | 47 | 1019.2 |
| 20260906152307 | 89 | 42 | 8.0 | 11.0 | 0.00 | 0.00 | 0.00 | 48 | 1019.2 |
| 20260906152204 | 89 | 28 | 7.0 | 11.0 | 0.00 | 0.00 | 0.00 | 48 | 1019.2 |
| 20260906152005 | 89 | 44 | 5.0 | 11.0 | 0.00 | 0.00 | 0.00 | 47 | 1019.2 |
| 20260906151906 | 89 | 32 | 6.0 | 11.0 | 0.00 | 0.00 | 0.00 | 47 | 1019.2 |
| 20260906151807 | 89 | 40 | 8.0 | 11.0 | 0.00 | 0.00 | 0.00 | 47 | 1019.2 |
| 20260906151707 | 89 | 65 | 4.0 | 13.0 | 0.00 | 0.00 | 0.00 | 47 | 1019.2 |
| 20260906151605 | 89 | 34 | 7.0 | 13.0 | 0.00 | 0.00 | 0.00 | 47 | 1019.2 |
| 20260906151508 | 89 | 38 | 7.0 | 13.0 | 0.00 | 0.00 | 0.00 | 47 | 1019.2 |
| 20260906151405 | 89 | 30 | 7.0 | 13.0 | 0.00 | 0.00 | 0.00 | 47 | 1019.2 |
| 20260906151305 | 89 | 17 | 4.0 | 13.0 | 0.00 | 0.00 | 0.00 | 46 | 1019.2 |
| 20260906151106 | 90 | 22 | 7.0 | 13.0 | 0.00 | 0.00 | 0.00 | 47 | 1019.2 |
| 20260906151007 | 90 | 50 | 5.0 | 13.0 | 0.00 | 0.00 | 0.00 | 47 | 1019.2 |
| 20260906150908 | 90 | 73 | 8.0 | 13.0 | 0.00 | 0.00 | 0.00 | 47 | 1019.2 |
| 20260906150805 | 90 | 70 | 9.0 | 13.0 | 0.00 | 0.00 | 0.00 | 47 | 1019.2 |
| 20260906150609 | 90 | 48 | 5.0 | 13.0 | 0.00 | 0.00 | 0.00 | 48 | 1019.2 |
| 20260906150505 | 90 | 92 | 7.0 | 13.0 | 0.00 | 0.00 | 0.00 | 47 | 1019.2 |
| 20260906150405 | 90 | 36 | 5.0 | 13.0 | 0.00 | 0.00 | 0.00 | 47 | 1019.2 |
| 20260906150308 | 90 | 31 | 6.0 | 13.0 | 0.00 | 0.00 | 0.00 | 47 | 1019.3 |
| 20260906150206 | 90 | 37 | 7.0 | 13.0 | 0.00 | 0.00 | 0.00 | 48 | 1019.3 |
| 20260906150105 | 90 | 83 | 9.0 | 13.0 | 0.00 | 0.00 | 0.00 | 48 | 1019.2 |
| 20260906150013 | 90 | 71 | 11.0 | 13.0 | 0.00 | 0.00 | 0.00 | 49 | 1019.2 |
| 20260906145905 | 90 | 72 | 9.0 | 12.0 | 0.00 | 0.00 | 0.00 | 48 | 1019.3 |
| 20260906145805 | 90 | 78 | 7.0 | 11.0 | 0.00 | 0.00 | 0.00 | 48 | 1019.2 |
| 20260906145708 | 90 | 37 | 5.0 | 11.0 | 0.00 | 0.00 | 0.00 | 48 | 1019.2 |
| 20260906145306 | 90 | 20 | 7.0 | 14.0 | 0.00 | 0.00 | 0.00 | 47 | 1019.2 |
| 20260906145206 | 90 | 5 | 8.0 | 14.0 | 0.00 | 0.00 | 0.00 | 47 | 1019.3 |
| 20260906145108 | 90 | 15 | 8.0 | 14.0 | 0.00 | 0.00 | 0.00 | 46 | 1019.3 |
| 20260906145006 | 90 | 36 | 9.0 | 14.0 | 0.00 | 0.00 | 0.00 | 47 | 1019.3 |
| 20260906144905 | 90 | 15 | 9.0 | 14.0 | 0.00 | 0.00 | 0.00 | 47 | 1019.3 |
| 20260906144808 | 90 | 63 | 10.0 | 14.0 | 0.00 | 0.00 | 0.00 | 47 | 1019.3 |
| 20260906144706 | 90 | 53 | 5.0 | 14.0 | 0.00 | 0.00 | 0.00 | 47 | 1019.3 |
| 20260906144605 | 90 | 77 | 10.0 | 14.0 | 0.00 | 0.00 | 0.00 | 47 | 1019.3 |
| 20260906144508 | 90 | 43 | 6.0 | 14.0 | 0.00 | 0.00 | 0.00 | 47 | 1019.3 |
| 20260906144405 | 90 | 79 | 13.0 | 14.0 | 0.00 | 0.00 | 0.00 | 49 | 1019.3 |
| 20260906144305 | 90 | 42 | 5.0 | 13.0 | 0.00 | 0.00 | 0.00 | 48 | 1019.3 |
| 20260906144208 | 90 | 70 | 5.0 | 13.0 | 0.00 | 0.00 | 0.00 | 47 | 1019.4 |
| 20260906144105 | 90 | 32 | 8.0 | 14.0 | 0.00 | 0.00 | 0.00 | 48 | 1019.2 |
| 20260906144006 | 90 | 76 | 11.0 | 12.0 | 0.00 | 0.00 | 0.00 | 48 | 1019.2 |
| 20260906143908 | 90 | 44 | 7.0 | 12.0 | 0.00 | 0.00 | 0.00 | 47 | 1019.3 |
| 20260906143804 | 90 | 40 | 3.0 | 12.0 | 0.00 | 0.00 | 0.00 | 47 | 1019.3 |
| 20260906143608 | 90 | 66 | 7.0 | 12.0 | 0.00 | 0.00 | 0.00 | 48 | 1019.3 |
| 20260906143506 | 90 | 84 | 8.0 | 12.0 | 0.00 | 0.00 | 0.00 | 47 | 1019.3 |
| 20260906143405 | 90 | 53 | 4.0 | 12.0 | 0.00 | 0.00 | 0.00 | 48 | 1019.3 |
| 20260906143308 | 90 | 36 | 8.0 | 12.0 | 0.00 | 0.00 | 0.00 | 49 | 1019.3 |
| 20260906143205 | 90 | 73 | 4.0 | 15.0 | 0.00 | 0.00 | 0.00 | 49 | 1019.2 |
| 20260906143105 | 90 | 63 | 9.0 | 15.0 | 0.00 | 0.00 | 0.00 | 48 | 1019.2 |
| 20260906143008 | 90 | 71 | 7.0 | 15.0 | 0.00 | 0.00 | 0.00 | 47 | 1019.3 |
| 20260906142905 | 90 | 48 | 6.0 | 15.0 | 0.00 | 0.00 | 0.00 | 47 | 1019.3 |
| 20260906142806 | 90 | 41 | 10.0 | 15.0 | 0.00 | 0.00 | 0.00 | 47 | 1019.3 |
| 20260906142707 | 91 | 49 | 8.0 | 15.0 | 0.00 | 0.00 | 0.00 | 47 | 1019.2 |
| 20260906142605 | 91 | 53 | 10.0 | 15.0 | 0.00 | 0.00 | 0.00 | 47 | 1019.3 |
| 20260906142506 | 91 | 63 | 4.0 | 15.0 | 0.00 | 0.00 | 0.00 | 48 | 1019.3 |
| 20260906142408 | 91 | 95 | 10.0 | 15.0 | 0.00 | 0.00 | 0.00 | 48 | 1019.2 |
| 20260906142307 | 90 | 84 | 5.0 | 15.0 | 0.00 | 0.00 | 0.00 | 48 | 1019.2 |
| 20260906142205 | 90 | 75 | 14.0 | 15.0 | 0.00 | 0.00 | 0.00 | 47 | 1019.2 |
| 20260906142108 | 90 | 55 | 8.0 | 14.0 | 0.00 | 0.00 | 0.00 | 47 | 1019.3 |
| 20260906142007 | 90 | 42 | 8.0 | 14.0 | 0.00 | 0.00 | 0.00 | 49 | 1019.3 |
| 20260906141904 | 90 | 29 | 8.0 | 14.0 | 0.00 | 0.00 | 0.00 | 48 | 1019.3 |
| 20260906141808 | 90 | 71 | 11.0 | 14.0 | 0.00 | 0.00 | 0.00 | 47 | 1019.3 |
| 20260906141706 | 90 | 11 | 4.0 | 14.0 | 0.00 | 0.00 | 0.00 | 47 | 1019.3 |
| 20260906141605 | 90 | 71 | 8.0 | 14.0 | 0.00 | 0.00 | 0.00 | 48 | 1019.3 |
| 20260906141508 | 90 | 62 | 4.0 | 16.0 | 0.00 | 0.00 | 0.00 | 48 | 1019.3 |
| 20260906141405 | 90 | 41 | 5.0 | 16.0 | 0.00 | 0.00 | 0.00 | 48 | 1019.2 |
| 20260906141105 | 90 | 45 | 6.0 | 16.0 | 0.00 | 0.00 | 0.00 | 46 | 1019.3 |
| 20260906141006 | 91 | 20 | 8.0 | 16.0 | 0.00 | 0.00 | 0.00 | 49 | 1019.3 |
| 20260906140908 | 91 | 72 | 5.0 | 16.0 | 0.00 | 0.00 | 0.00 | 47 | 1019.3 |
| 20260906140705 | 91 | 52 | 4.0 | 16.0 | 0.00 | 0.00 | 0.00 | 47 | 1019.4 |
| 20260906140608 | 91 | 68 | 12.0 | 16.0 | 0.00 | 0.00 | 0.00 | 48 | 1019.4 |
| 20260906140505 | 91 | 79 | 8.0 | 15.0 | 0.00 | 0.00 | 0.00 | 48 | 1019.3 |
| 20260906140405 | 91 | 98 | 7.0 | 13.0 | 0.00 | 0.00 | 0.00 | 48 | 1019.4 |
| 20260906140308 | 91 | 61 | 4.0 | 13.0 | 0.00 | 0.00 | 0.00 | 47 | 1019.3 |
| 20260906140205 | 91 | 32 | 5.0 | 13.0 | 0.00 | 0.00 | 0.00 | 47 | 1019.3 |
| 20260906140119 | 91 | 59 | 10.0 | 13.0 | 0.00 | 0.00 | 0.00 | 49 | 1019.4 |
| 20260906140011 | 91 | 28 | 9.0 | 13.0 | 0.00 | 0.00 | 0.00 | 49 | 1019.4 |
| 20260906135708 | 90 | 53 | 7.0 | 11.0 | 0.00 | 0.00 | 0.00 | 48 | 1019.3 |
| 20260906135506 | 90 | 80 | 9.0 | 11.0 | 0.00 | 0.00 | 0.00 | 50 | 1019.3 |
| 20260906135407 | 90 | 71 | 9.0 | 13.0 | 0.00 | 0.00 | 0.00 | 49 | 1019.3 |
| 20260906135306 | 90 | 48 | 7.0 | 13.0 | 0.00 | 0.00 | 0.00 | 48 | 1019.3 |
| 20260906135205 | 90 | 40 | 5.0 | 13.0 | 0.00 | 0.00 | 0.00 | 49 | 1019.3 |
| 20260906135107 | 90 | 75 | 4.0 | 13.0 | 0.00 | 0.00 | 0.00 | 49 | 1019.3 |
| 20260906134905 | 90 | 40 | 3.0 | 13.0 | 0.00 | 0.00 | 0.00 | 49 | 1019.4 |
| 20260906134808 | 90 | 70 | 9.0 | 13.0 | 0.00 | 0.00 | 0.00 | 48 | 1019.4 |
| 20260906134705 | 90 | 24 | 7.0 | 13.0 | 0.00 | 0.00 | 0.00 | 49 | 1019.4 |
| 20260906134607 | 90 | 45 | 4.0 | 13.0 | 0.00 | 0.00 | 0.00 | 48 | 1019.3 |
| 20260906134508 | 90 | 31 | 8.0 | 13.0 | 0.00 | 0.00 | 0.00 | 48 | 1019.4 |
| 20260906134305 | 90 | 41 | 6.0 | 17.0 | 0.00 | 0.00 | 0.00 | 50 | 1019.4 |
| 20260906134208 | 90 | 45 | 7.0 | 17.0 | 0.00 | 0.00 | 0.00 | 49 | 1019.4 |
| 20260906134105 | 90 | 47 | 9.0 | 17.0 | 0.00 | 0.00 | 0.00 | 48 | 1019.3 |
| 20260906133806 | 90 | 74 | 7.0 | 17.0 | 0.00 | 0.00 | 0.00 | 47 | 1019.4 |
| 20260906133705 | 91 | 34 | 9.0 | 17.0 | 0.00 | 0.00 | 0.00 | 47 | 1019.5 |
| 20260906133506 | 91 | 53 | 6.0 | 17.0 | 0.00 | 0.00 | 0.00 | 48 | 1019.4 |
| 20260906133405 | 91 | 65 | 10.0 | 17.0 | 0.00 | 0.00 | 0.00 | 49 | 1019.4 |
| 20260906133205 | 90 | 50 | 11.0 | 13.0 | 0.00 | 0.00 | 0.00 | 49 | 1019.5 |
| 20260906133009 | 90 | 74 | 7.0 | 13.0 | 0.00 | 0.00 | 0.00 | 48 | 1019.5 |
| 20260906132906 | 90 | 75 | 9.0 | 13.0 | 0.00 | 0.00 | 0.00 | 48 | 1019.5 |
| 20260906132805 | 90 | 90 | 11.0 | 13.0 | 0.00 | 0.00 | 0.00 | 48 | 1019.4 |
| 20260906132708 | 91 | 53 | 11.0 | 13.0 | 0.00 | 0.00 | 0.00 | 47 | 1019.4 |
| 20260906132606 | 91 | 35 | 7.0 | 13.0 | 0.00 | 0.00 | 0.00 | 47 | 1019.5 |
| 20260906132505 | 91 | 42 | 12.0 | 13.0 | 0.00 | 0.00 | 0.00 | 48 | 1019.5 |
| 20260906132408 | 91 | 65 | 7.0 | 10.0 | 0.00 | 0.00 | 0.00 | 49 | 1019.5 |
| 20260906132307 | 91 | 46 | 3.0 | 10.0 | 0.00 | 0.00 | 0.00 | 47 | 1019.5 |
| 20260906132205 | 91 | 42 | 4.0 | 10.0 | 0.00 | 0.00 | 0.00 | 48 | 1019.5 |
| 20260906132007 | 91 | 38 | 7.0 | 10.0 | 0.00 | 0.00 | 0.00 | 48 | 1019.5 |
| 20260906131905 | 91 | 360 | 6.0 | 10.0 | 0.00 | 0.00 | 0.00 | 49 | 1019.5 |
| 20260906131809 | 91 | 31 | 6.0 | 10.0 | 0.00 | 0.00 | 0.00 | 50 | 1019.4 |
| 20260906131705 | 91 | 9 | 7.0 | 10.0 | 0.00 | 0.00 | 0.00 | 49 | 1019.5 |
| 20260906131604 | 91 | 360 | 7.0 | 10.0 | 0.00 | 0.00 | 0.00 | 48 | 1019.5 |
| 20260906131508 | 91 | 344 | 3.0 | 11.0 | 0.00 | 0.00 | 0.00 | 49 | 1019.5 |
| 20260906131405 | 91 | 40 | 5.0 | 11.0 | 0.00 | 0.00 | 0.00 | 50 | 1019.5 |
| 20260906131305 | 90 | 37 | 6.0 | 14.0 | 0.00 | 0.00 | 0.00 | 50 | 1019.5 |
| 20260906131106 | 90 | 39 | 4.0 | 14.0 | 0.00 | 0.00 | 0.00 | 49 | 1019.5 |
| 20260906131006 | 90 | 28 | 6.0 | 14.0 | 0.00 | 0.00 | 0.00 | 49 | 1019.5 |
| 20260906130908 | 90 | 17 | 4.0 | 14.0 | 0.00 | 0.00 | 0.00 | 50 | 1019.5 |
| 20260906130805 | 90 | 69 | 5.0 | 14.0 | 0.00 | 0.00 | 0.00 | 49 | 1019.5 |
| 20260906130706 | 90 | 27 | 5.0 | 14.0 | 0.00 | 0.00 | 0.00 | 48 | 1019.5 |
| 20260906130608 | 90 | 46 | 10.0 | 14.0 | 0.00 | 0.00 | 0.00 | 50 | 1019.5 |
| 20260906130505 | 90 | 13 | 8.0 | 14.0 | 0.00 | 0.00 | 0.00 | 49 | 1019.5 |
| 20260906130308 | 90 | 68 | 12.0 | 14.0 | 0.00 | 0.00 | 0.00 | 49 | 1019.6 |
| 20260906130206 | 90 | 28 | 11.0 | 14.0 | 0.00 | 0.00 | 0.00 | 49 | 1019.5 |
| 20260906130105 | 90 | 53 | 6.0 | 13.0 | 0.00 | 0.00 | 0.00 | 49 | 1019.5 |
| 20260906130010 | 90 | 86 | 3.0 | 13.0 | 0.00 | 0.00 | 0.00 | 49 | 1019.5 |
| 20260906125906 | 90 | 59 | 5.0 | 13.0 | 0.00 | 0.00 | 0.00 | 49 | 1019.6 |
| 20260906125805 | 90 | 19 | 8.0 | 13.0 | 0.00 | 0.00 | 0.00 | 49 | 1019.6 |
| 20260906125708 | 90 | 41 | 9.0 | 13.0 | 0.00 | 0.00 | 0.00 | 48 | 1019.6 |
| 20260906125605 | 90 | 30 | 7.0 | 16.0 | 0.00 | 0.00 | 0.00 | 49 | 1019.5 |
| 20260906125505 | 90 | 45 | 8.0 | 16.0 | 0.00 | 0.00 | 0.00 | 48 | 1019.6 |
| 20260906125408 | 90 | 40 | 8.0 | 16.0 | 0.00 | 0.00 | 0.00 | 49 | 1019.5 |
| 20260906125306 | 90 | 50 | 7.0 | 16.0 | 0.00 | 0.00 | 0.00 | 50 | 1019.5 |
| 20260906125206 | 90 | 24 | 5.0 | 16.0 | 0.00 | 0.00 | 0.00 | 52 | 1019.5 |
| 20260906125108 | 90 | 76 | 10.0 | 16.0 | 0.00 | 0.00 | 0.00 | 50 | 1019.5 |
| 20260906125006 | 90 | 43 | 5.0 | 16.0 | 0.00 | 0.00 | 0.00 | 49 | 1019.5 |
| 20260906124905 | 90 | 22 | 4.0 | 16.0 | 0.00 | 0.00 | 0.00 | 49 | 1019.5 |
| 20260906124808 | 90 | 22 | 6.0 | 16.0 | 0.00 | 0.00 | 0.00 | 48 | 1019.6 |
| 20260906124705 | 90 | 39 | 10.0 | 16.0 | 0.00 | 0.00 | 0.00 | 49 | 1019.6 |
| 20260906124605 | 90 | 53 | 15.0 | 16.0 | 0.00 | 0.00 | 0.00 | 49 | 1019.5 |
| 20260906124508 | 90 | 28 | 6.0 | 14.0 | 0.00 | 0.00 | 0.00 | 49 | 1019.6 |
| 20260906124405 | 90 | 28 | 9.0 | 14.0 | 0.00 | 0.00 | 0.00 | 48 | 1019.6 |
| 20260906124305 | 90 | 30 | 7.0 | 14.0 | 0.00 | 0.00 | 0.00 | 49 | 1019.6 |
| 20260906124208 | 90 | 38 | 13.0 | 14.0 | 0.00 | 0.00 | 0.00 | 51 | 1019.6 |
| 20260906124105 | 90 | 63 | 10.0 | 13.0 | 0.00 | 0.00 | 0.00 | 49 | 1019.5 |
| 20260906124006 | 90 | 32 | 7.0 | 13.0 | 0.00 | 0.00 | 0.00 | 49 | 1019.5 |
| 20260906123908 | 90 | 30 | 5.0 | 13.0 | 0.00 | 0.00 | 0.00 | 50 | 1019.6 |
| 20260906123805 | 90 | 53 | 7.0 | 13.0 | 0.00 | 0.00 | 0.00 | 50 | 1019.5 |
| 20260906123705 | 90 | 45 | 3.0 | 13.0 | 0.00 | 0.00 | 0.00 | 49 | 1019.5 |
| 20260906123607 | 90 | 34 | 5.0 | 13.0 | 0.00 | 0.00 | 0.00 | 49 | 1019.5 |
| 20260906123405 | 90 | 19 | 6.0 | 13.0 | 0.00 | 0.00 | 0.00 | 49 | 1019.5 |
| 20260906123308 | 90 | 34 | 10.0 | 13.0 | 0.00 | 0.00 | 0.00 | 49 | 1019.5 |
| 20260906123205 | 90 | 67 | 7.0 | 13.0 | 0.00 | 0.00 | 0.00 | 50 | 1019.5 |
| 20260906123009 | 90 | 38 | 8.0 | 13.0 | 0.00 | 0.00 | 0.00 | 50 | 1019.5 |
| 20260906122905 | 90 | 39 | 12.0 | 12.0 | 0.00 | 0.00 | 0.00 | 49 | 1019.5 |
| 20260906122806 | 90 | 38 | 9.0 | 12.0 | 0.00 | 0.00 | 0.00 | 51 | 1019.5 |
| 20260906122708 | 90 | 78 | 7.0 | 12.0 | 0.00 | 0.00 | 0.00 | 50 | 1019.5 |
| 20260906122605 | 90 | 13 | 7.0 | 12.0 | 0.00 | 0.00 | 0.00 | 50 | 1019.5 |
| 20260906122506 | 90 | 38 | 10.0 | 12.0 | 0.00 | 0.00 | 0.00 | 51 | 1019.5 |
| 20260906122408 | 90 | 41 | 6.0 | 12.0 | 0.00 | 0.00 | 0.00 | 51 | 1019.5 |
| 20260906122306 | 90 | 51 | 9.0 | 12.0 | 0.00 | 0.00 | 0.00 | 51 | 1019.5 |
| 20260906122206 | 90 | 5 | 6.0 | 14.0 | 0.00 | 0.00 | 0.00 | 51 | 1019.6 |
| 20260906122107 | 90 | 32 | 7.0 | 14.0 | 0.00 | 0.00 | 0.00 | 50 | 1019.5 |
| 20260906122006 | 90 | 15 | 3.0 | 14.0 | 0.00 | 0.00 | 0.00 | 50 | 1019.6 |
| 20260906121906 | 90 | 41 | 8.0 | 14.0 | 0.00 | 0.00 | 0.00 | 50 | 1019.6 |
| 20260906121808 | 90 | 45 | 11.0 | 14.0 | 0.00 | 0.00 | 0.00 | 49 | 1019.5 |
| 20260906121605 | 90 | 80 | 6.0 | 14.0 | 0.00 | 0.00 | 0.00 | 49 | 1019.6 |
| 20260906121507 | 90 | 56 | 8.0 | 14.0 | 0.00 | 0.00 | 0.00 | 49 | 1019.6 |
| 20260906121305 | 90 | 91 | 10.0 | 14.0 | 0.00 | 0.00 | 0.00 | 49 | 1019.6 |
| 20260906121208 | 90 | 30 | 11.0 | 14.0 | 0.00 | 0.00 | 0.00 | 49 | 1019.6 |
| 20260906121107 | 90 | 30 | 8.0 | 14.0 | 0.00 | 0.00 | 0.00 | 49 | 1019.5 |
| 20260906121006 | 90 | 35 | 6.0 | 14.0 | 0.00 | 0.00 | 0.00 | 49 | 1019.6 |
| 20260906120908 | 90 | 28 | 14.0 | 14.0 | 0.00 | 0.00 | 0.00 | 50 | 1019.5 |
| 20260906120806 | 90 | 70 | 7.0 | 12.0 | 0.00 | 0.00 | 0.00 | 50 | 1019.6 |
| 20260906120705 | 90 | 72 | 8.0 | 13.0 | 0.00 | 0.00 | 0.00 | 50 | 1019.5 |
| 20260906120506 | 90 | 22 | 6.0 | 13.0 | 0.00 | 0.00 | 0.00 | 50 | 1019.5 |
| 20260906120308 | 90 | 355 | 8.0 | 13.0 | 0.00 | 0.00 | 0.00 | 51 | 1019.5 |
| 20260906120012 | 90 | 38 | 6.0 | 13.0 | 0.00 | 0.00 | 0.00 | 49 | 1019.6 |
| 20260906115904 | 90 | 43 | 10.0 | 13.0 | 0.00 | 0.00 | 0.00 | 49 | 1019.6 |
| 20260906115805 | 90 | 30 | 10.0 | 13.0 | 0.00 | 0.00 | 0.00 | 50 | 1019.6 |
| 20260906115708 | 90 | 28 | 11.0 | 13.0 | 0.00 | 0.00 | 0.00 | 50 | 1019.6 |
| 20260906115605 | 90 | 46 | 8.0 | 13.0 | 0.00 | 0.00 | 0.00 | 51 | 1019.6 |
| 20260906115506 | 90 | 355 | 2.0 | 13.0 | 0.00 | 0.00 | 0.00 | 51 | 1019.6 |
| 20260906115306 | 89 | 25 | 5.0 | 13.0 | 0.00 | 0.00 | 0.00 | 51 | 1019.6 |
| 20260906115206 | 89 | 18 | 8.0 | 13.0 | 0.00 | 0.00 | 0.00 | 51 | 1019.6 |
| 20260906115108 | 89 | 55 | 7.0 | 13.0 | 0.00 | 0.00 | 0.00 | 51 | 1019.6 |
| 20260906115006 | 90 | 53 | 7.0 | 13.0 | 0.00 | 0.00 | 0.00 | 51 | 1019.6 |
| 20260906114905 | 90 | 41 | 5.0 | 13.0 | 0.00 | 0.00 | 0.00 | 50 | 1019.6 |
| 20260906114809 | 90 | 34 | 7.0 | 13.0 | 0.00 | 0.00 | 0.00 | 50 | 1019.7 |
| 20260906114705 | 90 | 29 | 9.0 | 13.0 | 0.00 | 0.00 | 0.00 | 50 | 1019.6 |
| 20260906114605 | 90 | 35 | 9.0 | 13.0 | 0.00 | 0.00 | 0.00 | 50 | 1019.6 |
| 20260906114508 | 90 | 27 | 8.0 | 13.0 | 0.00 | 0.00 | 0.00 | 49 | 1019.6 |
| 20260906114405 | 90 | 34 | 12.0 | 13.0 | 0.00 | 0.00 | 0.00 | 50 | 1019.6 |
| 20260906114305 | 90 | 46 | 6.0 | 11.0 | 0.00 | 0.00 | 0.00 | 52 | 1019.6 |
| 20260906114006 | 91 | 51 | 3.0 | 15.0 | 0.00 | 0.00 | 0.00 | 50 | 1019.7 |
| 20260906113908 | 91 | 42 | 9.0 | 15.0 | 0.00 | 0.00 | 0.00 | 50 | 1019.6 |
| 20260906113805 | 91 | 62 | 4.0 | 15.0 | 0.00 | 0.00 | 0.00 | 51 | 1019.6 |
| 20260906113704 | 91 | 360 | 5.0 | 15.0 | 0.00 | 0.00 | 0.00 | 50 | 1019.6 |
| 20260906113505 | 91 | 19 | 10.0 | 15.0 | 0.00 | 0.00 | 0.00 | 51 | 1019.7 |
| 20260906113405 | 90 | 57 | 7.0 | 15.0 | 0.00 | 0.00 | 0.00 | 50 | 1019.7 |
| 20260906113308 | 90 | 88 | 9.0 | 15.0 | 0.00 | 0.00 | 0.00 | 50 | 1019.7 |
| 20260906113205 | 90 | 94 | 10.0 | 13.0 | 0.00 | 0.00 | 0.00 | 51 | 1019.7 |
| 20260906113105 | 90 | 40 | 5.0 | 13.0 | 0.00 | 0.00 | 0.00 | 51 | 1019.7 |
| 20260906113009 | 90 | 80 | 13.0 | 13.0 | 0.00 | 0.00 | 0.00 | 49 | 1019.6 |
| 20260906112906 | 91 | 38 | 9.0 | 12.0 | 0.00 | 0.00 | 0.00 | 49 | 1019.7 |
| 20260906112805 | 91 | 83 | 9.0 | 12.0 | 0.00 | 0.00 | 0.00 | 50 | 1019.7 |
| 20260906112709 | 91 | 34 | 5.0 | 11.0 | 0.00 | 0.00 | 0.00 | 50 | 1019.6 |
| 20260906112605 | 90 | 40 | 4.0 | 11.0 | 0.00 | 0.00 | 0.00 | 53 | 1019.6 |
| 20260906112506 | 90 | 350 | 5.0 | 11.0 | 0.00 | 0.00 | 0.00 | 53 | 1019.7 |
| 20260906112407 | 90 | 346 | 7.0 | 11.0 | 0.00 | 0.00 | 0.00 | 52 | 1019.7 |
| 20260906112107 | 90 | 35 | 8.0 | 11.0 | 0.00 | 0.00 | 0.00 | 50 | 1019.7 |
| 20260906111906 | 90 | 360 | 5.0 | 9.0 | 0.00 | 0.00 | 0.00 | 52 | 1019.7 |
| 20260906111806 | 90 | 27 | 5.0 | 9.0 | 0.00 | 0.00 | 0.00 | 52 | 1019.7 |
| 20260906111706 | 90 | 346 | 3.0 | 9.0 | 0.00 | 0.00 | 0.00 | 53 | 1019.7 |
| 20260906111606 | 90 | 314 | 1.0 | 9.0 | 0.00 | 0.00 | 0.00 | 53 | 1019.7 |
| 20260906111508 | 90 | 313 | 3.0 | 9.0 | 0.00 | 0.00 | 0.00 | 51 | 1019.8 |
| 20260906111405 | 90 | 285 | 2.0 | 9.0 | 0.00 | 0.00 | 0.00 | 51 | 1019.7 |
| 20260906111305 | 90 | 74 | 2.0 | 9.0 | 0.00 | 0.00 | 0.00 | 51 | 1019.8 |
| 20260906111208 | 90 | 74 | 0.0 | 10.0 | 0.00 | 0.00 | 0.00 | 53 | 1019.8 |
| 20260906111104 | 90 | 74 | 4.0 | 10.0 | 0.00 | 0.00 | 0.00 | 53 | 1019.8 |
| 20260906110907 | 90 | 76 | 5.0 | 10.0 | 0.00 | 0.00 | 0.00 | 51 | 1019.9 |
| 20260906110805 | 90 | 44 | 5.0 | 10.0 | 0.00 | 0.00 | 0.00 | 50 | 1019.8 |
| 20260906110607 | 90 | 36 | 7.0 | 10.0 | 0.00 | 0.00 | 0.00 | 50 | 1019.8 |
| 20260906110505 | 90 | 37 | 5.0 | 14.0 | 0.00 | 0.00 | 0.00 | 51 | 1019.8 |
| 20260906110405 | 90 | 52 | 6.0 | 14.0 | 0.00 | 0.00 | 0.00 | 51 | 1019.8 |
| 20260906110307 | 90 | 78 | 5.0 | 14.0 | 0.00 | 0.00 | 0.00 | 52 | 1019.8 |
| 20260906110105 | 90 | 92 | 9.0 | 14.0 | 0.00 | 0.00 | 0.00 | 55 | 1019.8 |
| 20260906110012 | 90 | 77 | 8.0 | 14.0 | 0.00 | 0.00 | 0.00 | 52 | 1019.8 |
| 20260906105905 | 90 | 52 | 3.0 | 14.0 | 0.00 | 0.00 | 0.00 | 53 | 1019.8 |
| 20260906105805 | 90 | 33 | 8.0 | 14.0 | 0.00 | 0.00 | 0.00 | 53 | 1019.8 |
| 20260906105708 | 90 | 53 | 7.0 | 14.0 | 0.00 | 0.00 | 0.00 | 53 | 1019.7 |
| 20260906105605 | 90 | 92 | 7.0 | 14.0 | 0.00 | 0.00 | 0.00 | 53 | 1019.7 |
| 20260906105505 | 90 | 90 | 13.0 | 14.0 | 0.00 | 0.00 | 0.00 | 54 | 1019.8 |
| 20260906105409 | 89 | 86 | 5.0 | 8.0 | 0.00 | 0.00 | 0.00 | 53 | 1019.7 |
| 20260906105306 | 89 | 83 | 6.0 | 8.0 | 0.00 | 0.00 | 0.00 | 53 | 1019.8 |
| 20260906105205 | 89 | 65 | 0.0 | 11.0 | 0.00 | 0.00 | 0.00 | 52 | 1019.8 |
| 20260906105108 | 89 | 65 | 2.0 | 11.0 | 0.00 | 0.00 | 0.00 | 52 | 1019.8 |
| 20260906105006 | 89 | 65 | 2.0 | 11.0 | 0.00 | 0.00 | 0.00 | 53 | 1019.8 |
| 20260906104808 | 89 | 65 | 1.0 | 11.0 | 0.00 | 0.00 | 0.00 | 51 | 1019.8 |
| 20260906104705 | 89 | 65 | 0.0 | 11.0 | 0.00 | 0.00 | 0.00 | 52 | 1019.8 |
| 20260906104606 | 89 | 65 | 3.0 | 11.0 | 0.00 | 0.00 | 0.00 | 53 | 1019.9 |
| 20260906104509 | 89 | 32 | 1.0 | 11.0 | 0.00 | 0.00 | 0.00 | 53 | 1019.8 |
| 20260906104305 | 89 | 360 | 6.0 | 11.0 | 0.00 | 0.00 | 0.00 | 51 | 1019.9 |
| 20260906104207 | 89 | 17 | 8.0 | 11.0 | 0.00 | 0.00 | 0.00 | 52 | 1019.9 |
| 20260906104105 | 89 | 27 | 6.0 | 9.0 | 0.00 | 0.00 | 0.00 | 53 | 1019.9 |
| 20260906104005 | 89 | 78 | 4.0 | 11.0 | 0.00 | 0.00 | 0.00 | 53 | 1019.9 |
| 20260906103908 | 89 | 58 | 8.0 | 11.0 | 0.00 | 0.00 | 0.00 | 53 | 1019.8 |
| 20260906103805 | 89 | 80 | 2.0 | 12.0 | 0.00 | 0.00 | 0.00 | 53 | 1019.9 |
| 20260906103705 | 89 | 90 | 3.0 | 12.0 | 0.00 | 0.00 | 0.00 | 52 | 1019.9 |
| 20260906103608 | 89 | 74 | 3.0 | 12.0 | 0.00 | 0.00 | 0.00 | 52 | 1019.9 |
| 20260906103506 | 89 | 47 | 5.0 | 12.0 | 0.00 | 0.00 | 0.00 | 53 | 1019.9 |
| 20260906103405 | 89 | 67 | 2.0 | 12.0 | 0.00 | 0.00 | 0.00 | 54 | 1019.9 |
| 20260906103308 | 89 | 104 | 2.0 | 12.0 | 0.00 | 0.00 | 0.00 | 55 | 1019.9 |
| 20260906103205 | 89 | 84 | 6.0 | 12.0 | 0.00 | 0.00 | 0.00 | 55 | 1019.9 |
| 20260906103105 | 89 | 32 | 2.0 | 12.0 | 0.00 | 0.00 | 0.00 | 55 | 1019.9 |
| 20260906103008 | 89 | 88 | 8.0 | 12.0 | 0.00 | 0.00 | 0.00 | 55 | 1019.9 |
| 20260906102905 | 89 | 109 | 9.0 | 12.0 | 0.00 | 0.00 | 0.00 | 56 | 1019.9 |
| 20260906102805 | 88 | 78 | 10.0 | 12.0 | 0.00 | 0.00 | 0.00 | 56 | 1019.9 |
| 20260906102707 | 88 | 94 | 7.0 | 12.0 | 0.00 | 0.00 | 0.00 | 56 | 1019.9 |
| 20260906102604 | 88 | 80 | 5.0 | 12.0 | 0.00 | 0.00 | 0.00 | 56 | 1019.9 |
| 20260906102408 | 88 | 41 | 5.0 | 12.0 | 0.00 | 0.00 | 0.00 | 58 | 1019.9 |
| 20260906102306 | 88 | 84 | 8.0 | 8.0 | 0.00 | 0.00 | 0.00 | 57 | 1020.0 |
| 20260906102204 | 88 | 9 | 2.0 | 7.0 | 0.00 | 0.00 | 0.00 | 58 | 1020.0 |
| 20260906102006 | 88 | 9 | 2.0 | 10.0 | 0.00 | 0.00 | 0.00 | 57 | 1020.0 |
| 20260906101904 | 88 | 9 | 2.0 | 10.0 | 0.00 | 0.00 | 0.00 | 58 | 1020.0 |
| 20260906101705 | 88 | 333 | 3.0 | 10.0 | 0.00 | 0.00 | 0.00 | 56 | 1020.1 |
| 20260906101605 | 88 | 14 | 6.0 | 10.0 | 0.00 | 0.00 | 0.00 | 57 | 1020.0 |
| 20260906101508 | 88 | 321 | 2.0 | 10.0 | 0.00 | 0.00 | 0.00 | 59 | 1020.1 |
| 20260906101405 | 88 | 327 | 4.0 | 10.0 | 0.00 | 0.00 | 0.00 | 58 | 1020.0 |
| 20260906101306 | 88 | 339 | 5.0 | 10.0 | 0.00 | 0.00 | 0.00 | 59 | 1020.0 |
| 20260906101208 | 88 | 330 | 4.0 | 10.0 | 0.00 | 0.00 | 0.00 | 58 | 1020.0 |
| 20260906101105 | 88 | 348 | 3.0 | 10.0 | 0.00 | 0.00 | 0.00 | 57 | 1020.0 |
| 20260906101007 | 88 | 29 | 8.0 | 10.0 | 0.00 | 0.00 | 0.00 | 57 | 1020.0 |
| 20260906100908 | 88 | 5 | 9.0 | 10.0 | 0.00 | 0.00 | 0.00 | 57 | 1020.0 |
| 20260906100806 | 88 | 46 | 8.0 | 10.0 | 0.00 | 0.00 | 0.00 | 58 | 1020.0 |
| 20260906100705 | 88 | 52 | 3.0 | 9.0 | 0.00 | 0.00 | 0.00 | 58 | 1020.0 |
| 20260906100608 | 88 | 84 | 5.0 | 9.0 | 0.00 | 0.00 | 0.00 | 58 | 1020.0 |
| 20260906100505 | 88 | 85 | 2.0 | 9.0 | 0.00 | 0.00 | 0.00 | 58 | 1020.0 |
| 20260906100405 | 88 | 97 | 5.0 | 9.0 | 0.00 | 0.00 | 0.00 | 58 | 1020.0 |
| 20260906100307 | 88 | 73 | 5.0 | 9.0 | 0.00 | 0.00 | 0.00 | 58 | 1020.0 |
| 20260906100205 | 88 | 68 | 4.0 | 9.0 | 0.00 | 0.00 | 0.00 | 58 | 1020.0 |
| 20260906100118 | 87 | 51 | 2.0 | 9.0 | 0.00 | 0.00 | 0.00 | 59 | 1020.0 |
| 20260906100012 | 87 | 72 | 2.0 | 9.0 | 0.00 | 0.00 | 0.00 | 59 | 1020.0 |
| 20260906095904 | 87 | 102 | 9.0 | 9.0 | 0.00 | 0.00 | 0.00 | 59 | 1020.0 |
| 20260906095805 | 87 | 103 | 2.0 | 8.0 | 0.00 | 0.00 | 0.00 | 61 | 1020.0 |
| 20260906095707 | 87 | 76 | 7.0 | 8.0 | 0.00 | 0.00 | 0.00 | 63 | 1020.0 |
| 20260906095605 | 87 | 28 | 2.0 | 8.0 | 0.00 | 0.00 | 0.00 | 63 | 1020.0 |
| 20260906095506 | 87 | 24 | 5.0 | 8.0 | 0.00 | 0.00 | 0.00 | 64 | 1020.0 |
| 20260906095409 | 86 | 13 | 5.0 | 8.0 | 0.00 | 0.00 | 0.00 | 64 | 1020.0 |
| 20260906095306 | 86 | 360 | 4.0 | 8.0 | 0.00 | 0.00 | 0.00 | 64 | 1020.0 |
| 20260906095205 | 86 | 336 | 2.0 | 8.0 | 0.00 | 0.00 | 0.00 | 65 | 1020.1 |
| 20260906095108 | 86 | 355 | 6.0 | 8.0 | 0.00 | 0.00 | 0.00 | 64 | 1020.0 |
| 20260906095006 | 86 | 303 | 3.0 | 8.0 | 0.00 | 0.00 | 0.00 | 64 | 1020.1 |
| 20260906094905 | 86 | 300 | 1.0 | 8.0 | 0.00 | 0.00 | 0.00 | 63 | 1020.1 |
| 20260906094808 | 86 | 300 | 3.0 | 8.0 | 0.00 | 0.00 | 0.00 | 62 | 1020.1 |
| 20260906094705 | 86 | 311 | 3.0 | 8.0 | 0.00 | 0.00 | 0.00 | 63 | 1020.1 |
| 20260906094605 | 86 | 320 | 2.0 | 8.0 | 0.00 | 0.00 | 0.00 | 62 | 1020.1 |
| 20260906094406 | 86 | 351 | 2.0 | 8.0 | 0.00 | 0.00 | 0.00 | 62 | 1020.1 |
| 20260906094305 | 86 | 343 | 8.0 | 8.0 | 0.00 | 0.00 | 0.00 | 63 | 1020.2 |
| 20260906094208 | 86 | 34 | 2.0 | 8.0 | 0.00 | 0.00 | 0.00 | 62 | 1020.2 |
| 20260906094105 | 86 | 22 | 5.0 | 8.0 | 0.00 | 0.00 | 0.00 | 62 | 1020.1 |
| 20260906094006 | 86 | 19 | 4.0 | 10.0 | 0.00 | 0.00 | 0.00 | 61 | 1020.1 |
| 20260906093908 | 86 | 30 | 4.0 | 10.0 | 0.00 | 0.00 | 0.00 | 62 | 1020.1 |
| 20260906093805 | 86 | 14 | 7.0 | 10.0 | 0.00 | 0.00 | 0.00 | 62 | 1020.1 |
| 20260906093705 | 85 | 53 | 3.0 | 10.0 | 0.00 | 0.00 | 0.00 | 63 | 1020.1 |
| 20260906093608 | 85 | 69 | 3.0 | 10.0 | 0.00 | 0.00 | 0.00 | 63 | 1020.1 |
| 20260906093506 | 85 | 51 | 5.0 | 10.0 | 0.00 | 0.00 | 0.00 | 62 | 1020.1 |
| 20260906093405 | 85 | 42 | 6.0 | 10.0 | 0.00 | 0.00 | 0.00 | 61 | 1020.1 |
| 20260906093308 | 86 | 40 | 6.0 | 10.0 | 0.00 | 0.00 | 0.00 | 61 | 1020.1 |
| 20260906093204 | 86 | 40 | 7.0 | 10.0 | 0.00 | 0.00 | 0.00 | 61 | 1020.1 |
| 20260906093105 | 86 | 22 | 6.0 | 10.0 | 0.00 | 0.00 | 0.00 | 61 | 1020.1 |
| 20260906093008 | 86 | 63 | 8.0 | 10.0 | 0.00 | 0.00 | 0.00 | 63 | 1020.1 |
| 20260906092905 | 86 | 11 | 4.0 | 8.0 | 0.00 | 0.00 | 0.00 | 63 | 1020.1 |
| 20260906092805 | 86 | 15 | 3.0 | 8.0 | 0.00 | 0.00 | 0.00 | 64 | 1020.2 |
| 20260906092708 | 86 | 15 | 1.0 | 8.0 | 0.00 | 0.00 | 0.00 | 63 | 1020.1 |
| 20260906092605 | 86 | 15 | 0.0 | 8.0 | 0.00 | 0.00 | 0.00 | 64 | 1020.1 |
| 20260906092505 | 86 | 15 | 2.0 | 8.0 | 0.00 | 0.00 | 0.00 | 63 | 1020.1 |
| 20260906092407 | 86 | 15 | 4.0 | 8.0 | 0.00 | 0.00 | 0.00 | 62 | 1020.1 |
| 20260906092205 | 86 | 13 | 4.0 | 8.0 | 0.00 | 0.00 | 0.00 | 64 | 1020.2 |
| 20260906092107 | 85 | 5 | 6.0 | 8.0 | 0.00 | 0.00 | 0.00 | 64 | 1020.1 |
| 20260906092005 | 85 | 51 | 5.0 | 8.0 | 0.00 | 0.00 | 0.00 | 64 | 1020.2 |
| 20260906091905 | 85 | 5 | 6.0 | 7.0 | 0.00 | 0.00 | 0.00 | 66 | 1020.2 |
| 20260906091807 | 85 | 13 | 5.0 | 6.0 | 0.00 | 0.00 | 0.00 | 67 | 1020.2 |
| 20260906091705 | 85 | 30 | 2.0 | 7.0 | 0.00 | 0.00 | 0.00 | 70 | 1020.2 |
| 20260906091605 | 85 | 11 | 2.0 | 7.0 | 0.00 | 0.00 | 0.00 | 70 | 1020.2 |
| 20260906091508 | 85 | 331 | 5.0 | 7.0 | 0.00 | 0.00 | 0.00 | 70 | 1020.1 |
| 20260906091405 | 85 | 343 | 2.0 | 7.0 | 0.00 | 0.00 | 0.00 | 69 | 1020.1 |
| 20260906091304 | 85 | 350 | 3.0 | 7.0 | 0.00 | 0.00 | 0.00 | 69 | 1020.1 |
| 20260906091106 | 84 | 350 | 0.0 | 8.0 | 0.00 | 0.00 | 0.00 | 68 | 1020.1 |
| 20260906091006 | 84 | 350 | 1.0 | 8.0 | 0.00 | 0.00 | 0.00 | 68 | 1020.2 |
| 20260906090805 | 85 | 350 | 4.0 | 8.0 | 0.00 | 0.00 | 0.00 | 69 | 1020.2 |
| 20260906090608 | 85 | 10 | 0.0 | 8.0 | 0.00 | 0.00 | 0.00 | 68 | 1020.1 |
| 20260906090505 | 85 | 10 | 1.0 | 8.0 | 0.00 | 0.00 | 0.00 | 68 | 1020.2 |
| 20260906090405 | 85 | 10 | 1.0 | 8.0 | 0.00 | 0.00 | 0.00 | 68 | 1020.2 |
| 20260906090308 | 85 | 17 | 3.0 | 8.0 | 0.00 | 0.00 | 0.00 | 68 | 1020.2 |
| 20260906090205 | 85 | 17 | 3.0 | 8.0 | 0.00 | 0.00 | 0.00 | 69 | 1020.2 |
| 20260906090106 | 85 | 35 | 5.0 | 8.0 | 0.00 | 0.00 | 0.00 | 69 | 1020.2 |
| 20260906090012 | 85 | 55 | 3.0 | 7.0 | 0.00 | 0.00 | 0.00 | 69 | 1020.2 |
| 20260906085805 | 85 | 28 | 1.0 | 7.0 | 0.00 | 0.00 | 0.00 | 69 | 1020.2 |
| 20260906085708 | 85 | 355 | 2.0 | 7.0 | 0.00 | 0.00 | 0.00 | 70 | 1020.1 |
| 20260906085605 | 85 | 336 | 3.0 | 7.0 | 0.00 | 0.00 | 0.00 | 70 | 1020.1 |
| 20260906085506 | 85 | 44 | 1.0 | 7.0 | 0.00 | 0.00 | 0.00 | 70 | 1020.1 |
| 20260906085408 | 85 | 44 | 3.0 | 7.0 | 0.00 | 0.00 | 0.00 | 71 | 1020.1 |
| 20260906085205 | 85 | 308 | 5.0 | 7.0 | 0.00 | 0.00 | 0.00 | 71 | 1020.1 |
| 20260906085108 | 84 | 5 | 3.0 | 7.0 | 0.00 | 0.00 | 0.00 | 71 | 1020.1 |
| 20260906084906 | 84 | 331 | 6.0 | 7.0 | 0.00 | 0.00 | 0.00 | 70 | 1020.1 |
| 20260906084808 | 84 | 36 | 3.0 | 7.0 | 0.00 | 0.00 | 0.00 | 70 | 1020.1 |
| 20260906084705 | 84 | 59 | 1.0 | 7.0 | 0.00 | 0.00 | 0.00 | 70 | 1020.1 |
| 20260906084606 | 84 | 23 | 2.0 | 7.0 | 0.00 | 0.00 | 0.00 | 69 | 1020.1 |
| 20260906084508 | 85 | 25 | 4.0 | 7.0 | 0.00 | 0.00 | 0.00 | 72 | 1020.1 |
| 20260906084306 | 84 | 360 | 2.0 | 6.0 | 0.00 | 0.00 | 0.00 | 70 | 1020.1 |
| 20260906084208 | 84 | 37 | 5.0 | 6.0 | 0.00 | 0.00 | 0.00 | 71 | 1020.1 |
| 20260906084106 | 84 | 28 | 5.0 | 6.0 | 0.00 | 0.00 | 0.00 | 71 | 1020.1 |
| 20260906084005 | 84 | 40 | 3.0 | 6.0 | 0.00 | 0.00 | 0.00 | 71 | 1020.1 |
| 20260906083906 | 84 | 360 | 2.0 | 6.0 | 0.00 | 0.00 | 0.00 | 71 | 1020.1 |
| 20260906083805 | 84 | 343 | 1.0 | 6.0 | 0.00 | 0.00 | 0.00 | 71 | 1020.1 |
| 20260906083505 | 84 | 331 | 6.0 | 6.0 | 0.00 | 0.00 | 0.00 | 72 | 1020.1 |
| 20260906083405 | 84 | 331 | 3.0 | 5.0 | 0.00 | 0.00 | 0.00 | 73 | 1020.0 |
| 20260906083307 | 84 | 333 | 2.0 | 5.0 | 0.00 | 0.00 | 0.00 | 73 | 1020.1 |
| 20260906083205 | 83 | 360 | 5.0 | 5.0 | 0.00 | 0.00 | 0.00 | 73 | 1020.1 |
| 20260906083105 | 83 | 49 | 4.0 | 5.0 | 0.00 | 0.00 | 0.00 | 74 | 1020.1 |
| 20260906083008 | 83 | 321 | 4.0 | 5.0 | 0.00 | 0.00 | 0.00 | 73 | 1020.1 |
| 20260906082805 | 83 | 274 | 1.0 | 6.0 | 0.00 | 0.00 | 0.00 | 74 | 1020.0 |
| 20260906082708 | 83 | 337 | 2.0 | 6.0 | 0.00 | 0.00 | 0.00 | 74 | 1020.1 |
| 20260906082604 | 83 | 326 | 4.0 | 6.0 | 0.00 | 0.00 | 0.00 | 74 | 1020.1 |
| 20260906082505 | 83 | 314 | 2.0 | 7.0 | 0.00 | 0.00 | 0.00 | 73 | 1020.1 |
| 20260906082408 | 83 | 325 | 3.0 | 8.0 | 0.00 | 0.00 | 0.00 | 74 | 1020.1 |
| 20260906082306 | 83 | 317 | 3.0 | 8.0 | 0.00 | 0.00 | 0.00 | 74 | 1020.2 |
| 20260906082204 | 83 | 317 | 2.0 | 8.0 | 0.00 | 0.00 | 0.00 | 74 | 1020.2 |
| 20260906082005 | 83 | 317 | 3.0 | 8.0 | 0.00 | 0.00 | 0.00 | 74 | 1020.1 |
| 20260906081905 | 83 | 319 | 4.0 | 8.0 | 0.00 | 0.00 | 0.00 | 74 | 1020.1 |
| 20260906081705 | 83 | 355 | 2.0 | 8.0 | 0.00 | 0.00 | 0.00 | 73 | 1020.1 |
| 20260906081605 | 83 | 355 | 3.0 | 8.0 | 0.00 | 0.00 | 0.00 | 75 | 1020.1 |
| 20260906081507 | 83 | 346 | 6.0 | 8.0 | 0.00 | 0.00 | 0.00 | 75 | 1020.1 |
| 20260906081305 | 83 | 336 | 5.0 | 7.0 | 0.00 | 0.00 | 0.00 | 76 | 1020.1 |
| 20260906081208 | 82 | 13 | 3.0 | 7.0 | 0.00 | 0.00 | 0.00 | 75 | 1020.1 |
| 20260906081106 | 82 | 326 | 2.0 | 7.0 | 0.00 | 0.00 | 0.00 | 75 | 1020.1 |
| 20260906081006 | 82 | 318 | 1.0 | 7.0 | 0.00 | 0.00 | 0.00 | 75 | 1020.1 |
| 20260906080806 | 82 | 323 | 3.0 | 7.0 | 0.00 | 0.00 | 0.00 | 76 | 1020.1 |
| 20260906080705 | 82 | 294 | 6.0 | 7.0 | 0.00 | 0.00 | 0.00 | 76 | 1020.0 |
| 20260906080505 | 82 | 323 | 2.0 | 6.0 | 0.00 | 0.00 | 0.00 | 76 | 1020.1 |
| 20260906080405 | 82 | 319 | 6.0 | 6.0 | 0.00 | 0.00 | 0.00 | 76 | 1020.0 |
| 20260906080308 | 81 | 355 | 6.0 | 6.0 | 0.00 | 0.00 | 0.00 | 75 | 1020.0 |
| 20260906080118 | 81 | 344 | 5.0 | 6.0 | 0.00 | 0.00 | 0.00 | 76 | 1020.0 |
| 20260906080012 | 81 | 344 | 4.0 | 6.0 | 0.00 | 0.00 | 0.00 | 76 | 1020.0 |
| 20260906075707 | 81 | 301 | 1.0 | 6.0 | 0.00 | 0.00 | 0.00 | 77 | 1020.0 |
| 20260906075605 | 81 | 294 | 3.0 | 6.0 | 0.00 | 0.00 | 0.00 | 76 | 1020.0 |
| 20260906075505 | 81 | 275 | 2.0 | 6.0 | 0.00 | 0.00 | 0.00 | 76 | 1020.0 |
| 20260906075406 | 81 | 255 | 3.0 | 6.0 | 0.00 | 0.00 | 0.00 | 75 | 1020.0 |
| 20260906075205 | 81 | 288 | 3.0 | 6.0 | 0.00 | 0.00 | 0.00 | 75 | 1020.0 |
| 20260906075108 | 81 | 301 | 1.0 | 6.0 | 0.00 | 0.00 | 0.00 | 76 | 1020.0 |
| 20260906075006 | 81 | 246 | 3.0 | 6.0 | 0.00 | 0.00 | 0.00 | 76 | 1020.0 |
| 20260906074904 | 81 | 263 | 1.0 | 6.0 | 0.00 | 0.00 | 0.00 | 76 | 1020.0 |
| 20260906074807 | 81 | 340 | 3.0 | 6.0 | 0.00 | 0.00 | 0.00 | 76 | 1020.0 |
| 20260906074705 | 80 | 344 | 6.0 | 6.0 | 0.00 | 0.00 | 0.00 | 76 | 1020.0 |
| 20260906074605 | 80 | 15 | 4.0 | 6.0 | 0.00 | 0.00 | 0.00 | 75 | 1020.0 |
| 20260906074508 | 80 | 319 | 3.0 | 6.0 | 0.00 | 0.00 | 0.00 | 75 | 1020.0 |
| 20260906074404 | 80 | 331 | 4.0 | 6.0 | 0.00 | 0.00 | 0.00 | 74 | 1020.0 |
| 20260906074207 | 80 | 288 | 3.0 | 6.0 | 0.00 | 0.00 | 0.00 | 73 | 1020.0 |
| 20260906074105 | 80 | 289 | 5.0 | 6.0 | 0.00 | 0.00 | 0.00 | 72 | 1020.0 |
| 20260906074006 | 80 | 259 | 2.0 | 6.0 | 0.00 | 0.00 | 0.00 | 72 | 1020.0 |
| 20260906073805 | 80 | 274 | 3.0 | 6.0 | 0.00 | 0.00 | 0.00 | 71 | 1020.0 |
| 20260906073705 | 80 | 306 | 1.0 | 6.0 | 0.00 | 0.00 | 0.00 | 71 | 1020.0 |
| 20260906073607 | 80 | 339 | 3.0 | 6.0 | 0.00 | 0.00 | 0.00 | 71 | 1020.0 |
| 20260906073505 | 80 | 318 | 5.0 | 6.0 | 0.00 | 0.00 | 0.00 | 71 | 1019.9 |
| 20260906073404 | 80 | 298 | 2.0 | 6.0 | 0.00 | 0.00 | 0.00 | 71 | 1019.8 |
| 20260906073308 | 80 | 298 | 3.0 | 6.0 | 0.00 | 0.00 | 0.00 | 71 | 1019.8 |
| 20260906073204 | 80 | 326 | 4.0 | 6.0 | 0.00 | 0.00 | 0.00 | 71 | 1019.9 |
| 20260906073012 | 80 | 349 | 5.0 | 6.0 | 0.00 | 0.00 | 0.00 | 71 | 1019.8 |
| 20260906072906 | 80 | 355 | 3.0 | 6.0 | 0.00 | 0.00 | 0.00 | 71 | 1019.8 |
| 20260906072805 | 80 | 325 | 4.0 | 7.0 | 0.00 | 0.00 | 0.00 | 72 | 1019.8 |
| 20260906072708 | 79 | 329 | 3.0 | 7.0 | 0.00 | 0.00 | 0.00 | 72 | 1019.8 |
| 20260906072505 | 79 | 315 | 3.0 | 7.0 | 0.00 | 0.00 | 0.00 | 72 | 1019.8 |
| 20260906072407 | 79 | 329 | 3.0 | 7.0 | 0.00 | 0.00 | 0.00 | 72 | 1019.8 |
| 20260906072205 | 79 | 349 | 3.0 | 8.0 | 0.00 | 0.00 | 0.00 | 73 | 1019.8 |
| 20260906072107 | 79 | 275 | 5.0 | 8.0 | 0.00 | 0.00 | 0.00 | 73 | 1019.8 |
| 20260906071905 | 79 | 322 | 2.0 | 8.0 | 0.00 | 0.00 | 0.00 | 72 | 1019.8 |
| 20260906071807 | 79 | 283 | 5.0 | 8.0 | 0.00 | 0.00 | 0.00 | 73 | 1019.8 |
| 20260906071405 | 79 | 314 | 6.0 | 8.0 | 0.00 | 0.00 | 0.00 | 71 | 1019.7 |
| 20260906071305 | 79 | 322 | 4.0 | 8.0 | 0.00 | 0.00 | 0.00 | 72 | 1019.7 |
| 20260906071207 | 79 | 345 | 8.0 | 8.0 | 0.00 | 0.00 | 0.00 | 71 | 1019.7 |
| 20260906071105 | 79 | 299 | 5.0 | 7.0 | 0.00 | 0.00 | 0.00 | 71 | 1019.7 |
| 20260906071006 | 79 | 328 | 4.0 | 7.0 | 0.00 | 0.00 | 0.00 | 69 | 1019.7 |
| 20260906070907 | 79 | 320 | 4.0 | 6.0 | 0.00 | 0.00 | 0.00 | 68 | 1019.6 |
| 20260906070805 | 79 | 274 | 4.0 | 6.0 | 0.00 | 0.00 | 0.00 | 69 | 1019.6 |
| 20260906070705 | 79 | 335 | 3.0 | 6.0 | 0.00 | 0.00 | 0.00 | 69 | 1019.6 |
| 20260906070608 | 79 | 309 | 4.0 | 6.0 | 0.00 | 0.00 | 0.00 | 69 | 1019.6 |
| 20260906070505 | 79 | 296 | 1.0 | 6.0 | 0.00 | 0.00 | 0.00 | 68 | 1019.6 |
| 20260906070405 | 79 | 276 | 4.0 | 6.0 | 0.00 | 0.00 | 0.00 | 69 | 1019.5 |
| 20260906070307 | 79 | 296 | 4.0 | 6.0 | 0.00 | 0.00 | 0.00 | 69 | 1019.6 |
| 20260906070204 | 79 | 279 | 3.0 | 6.0 | 0.00 | 0.00 | 0.00 | 69 | 1019.6 |
| 20260906070105 | 79 | 314 | 4.0 | 6.0 | 0.00 | 0.00 | 0.00 | 69 | 1019.6 |
| 20260906070013 | 79 | 336 | 3.0 | 6.0 | 0.00 | 0.00 | 0.00 | 69 | 1019.6 |
| 20260906065906 | 79 | 314 | 5.0 | 6.0 | 0.00 | 0.00 | 0.00 | 69 | 1019.5 |
| 20260906065805 | 79 | 279 | 3.0 | 6.0 | 0.00 | 0.00 | 0.00 | 68 | 1019.5 |
| 20260906065707 | 79 | 292 | 3.0 | 6.0 | 0.00 | 0.00 | 0.00 | 69 | 1019.5 |
| 20260906065605 | 79 | 298 | 3.0 | 6.0 | 0.00 | 0.00 | 0.00 | 69 | 1019.5 |
| 20260906065306 | 79 | 321 | 4.0 | 4.0 | 0.00 | 0.00 | 0.00 | 69 | 1019.4 |
| 20260906065205 | 78 | 290 | 1.0 | 4.0 | 0.00 | 0.00 | 0.00 | 70 | 1019.4 |
| 20260906064905 | 78 | 277 | 2.0 | 4.0 | 0.00 | 0.00 | 0.00 | 68 | 1019.4 |
| 20260906064807 | 78 | 288 | 2.0 | 4.0 | 0.00 | 0.00 | 0.00 | 68 | 1019.5 |
| 20260906064705 | 78 | 292 | 2.0 | 4.0 | 0.00 | 0.00 | 0.00 | 67 | 1019.4 |
| 20260906064605 | 78 | 292 | 1.0 | 4.0 | 0.00 | 0.00 | 0.00 | 67 | 1019.4 |
| 20260906064507 | 78 | 263 | 3.0 | 4.0 | 0.00 | 0.00 | 0.00 | 66 | 1019.5 |
| 20260906064405 | 78 | 275 | 3.0 | 4.0 | 0.00 | 0.00 | 0.00 | 66 | 1019.5 |
| 20260906064305 | 78 | 275 | 0.0 | 4.0 | 0.00 | 0.00 | 0.00 | 67 | 1019.4 |
| 20260906064006 | 77 | 260 | 4.0 | 4.0 | 0.00 | 0.00 | 0.00 | 68 | 1019.5 |
| 20260906063907 | 77 | 311 | 1.0 | 2.0 | 0.00 | 0.00 | 0.00 | 67 | 1019.5 |
| 20260906063805 | 77 | 125 | 0.0 | 2.0 | 0.00 | 0.00 | 0.00 | 68 | 1019.5 |
| 20260906063607 | 77 | 36 | 0.0 | 3.0 | 0.00 | 0.00 | 0.00 | 67 | 1019.4 |
| 20260906063506 | 77 | 36 | 0.0 | 3.0 | 0.00 | 0.00 | 0.00 | 67 | 1019.4 |
| 20260906063404 | 76 | 36 | 0.0 | 3.0 | 0.00 | 0.00 | 0.00 | 67 | 1019.4 |
| 20260906063206 | 76 | 36 | 2.0 | 3.0 | 0.00 | 0.00 | 0.00 | 68 | 1019.4 |
| 20260906063105 | 76 | 70 | 0.0 | 3.0 | 0.00 | 0.00 | 0.00 | 68 | 1019.4 |
| 20260906063009 | 76 | 70 | 0.0 | 3.0 | 0.00 | 0.00 | 0.00 | 68 | 1019.4 |
| 20260906062904 | 76 | 70 | 0.0 | 3.0 | 0.00 | 0.00 | 0.00 | 68 | 1019.4 |
| 20260906062805 | 76 | 70 | 0.0 | 3.0 | 0.00 | 0.00 | 0.00 | 68 | 1019.4 |
| 20260906062707 | 76 | 70 | 0.0 | 3.0 | 0.00 | 0.00 | 0.00 | 68 | 1019.4 |
| 20260906062408 | 75 | 71 | 3.0 | 3.0 | 0.00 | 0.00 | 0.00 | 70 | 1019.4 |
| 20260906062204 | 75 | 235 | 2.0 | 3.0 | 0.00 | 0.00 | 0.00 | 70 | 1019.3 |
| 20260906062107 | 74 | 235 | 3.0 | 3.0 | 0.00 | 0.00 | 0.00 | 71 | 1019.3 |
| 20260906062005 | 74 | 235 | 1.0 | 2.0 | 0.00 | 0.00 | 0.00 | 71 | 1019.2 |
| 20260906061905 | 74 | 235 | 1.0 | 2.0 | 0.00 | 0.00 | 0.00 | 72 | 1019.3 |
| 20260906061807 | 73 | 235 | 1.0 | 2.0 | 0.00 | 0.00 | 0.00 | 72 | 1019.3 |
| 20260906061605 | 73 | 235 | 0.0 | 2.0 | 0.00 | 0.00 | 0.00 | 73 | 1019.3 |
| 20260906061508 | 73 | 235 | 0.0 | 2.0 | 0.00 | 0.00 | 0.00 | 73 | 1019.2 |
| 20260906061405 | 73 | 235 | 0.0 | 2.0 | 0.00 | 0.00 | 0.00 | 73 | 1019.2 |
| 20260906061305 | 72 | 235 | 1.0 | 2.0 | 0.00 | 0.00 | 0.00 | 74 | 1019.2 |
| 20260906061207 | 72 | 235 | 1.0 | 1.0 | 0.00 | 0.00 | 0.00 | 74 | 1019.3 |
| 20260906061006 | 72 | 235 | 1.0 | 1.0 | 0.00 | 0.00 | 0.00 | 75 | 1019.2 |
| 20260906060907 | 72 | 235 | 0.0 | 1.0 | 0.00 | 0.00 | 0.00 | 75 | 1019.2 |
| 20260906060607 | 71 | 235 | 1.0 | 1.0 | 0.00 | 0.00 | 0.00 | 76 | 1019.1 |
| 20260906060405 | 71 | 235 | 0.0 | 2.0 | 0.00 | 0.00 | 0.00 | 76 | 1019.2 |
| 20260906060307 | 71 | 235 | 0.0 | 2.0 | 0.00 | 0.00 | 0.00 | 77 | 1019.2 |
| 20260906060205 | 70 | 235 | 0.0 | 2.0 | 0.00 | 0.00 | 0.00 | 77 | 1019.1 |
| 20260906055905 | 70 | 235 | 0.0 | 2.0 | 0.00 | 0.00 | 0.00 | 78 | 1019.1 |
| 20260906055805 | 69 | 235 | 0.0 | 2.0 | 0.00 | 0.00 | 0.00 | 79 | 1019.1 |
| 20260906055707 | 69 | 235 | 0.0 | 2.0 | 0.00 | 0.00 | 0.00 | 79 | 1019.1 |
| 20260906055407 | 68 | 235 | 2.0 | 2.0 | 0.00 | 0.00 | 0.00 | 81 | 1019.1 |
| 20260906055306 | 68 | 235 | 1.0 | 2.0 | 0.00 | 0.00 | 0.00 | 81 | 1019.1 |
| 20260906055107 | 68 | 235 | 0.0 | 2.0 | 0.00 | 0.00 | 0.00 | 82 | 1019.1 |
| 20260906054905 | 68 | 235 | 0.0 | 2.0 | 0.00 | 0.00 | 0.00 | 83 | 1019.0 |
| 20260906054807 | 67 | 235 | 0.0 | 2.0 | 0.00 | 0.00 | 0.00 | 83 | 1019.1 |
| 20260906054705 | 67 | 235 | 0.0 | 2.0 | 0.00 | 0.00 | 0.00 | 84 | 1019.0 |
| 20260906054605 | 67 | 235 | 0.0 | 2.0 | 0.00 | 0.00 | 0.00 | 85 | 1019.1 |
| 20260906054508 | 67 | 235 | 1.0 | 2.0 | 0.00 | 0.00 | 0.00 | 85 | 1019.1 |
| 20260906054405 | 67 | 235 | 1.0 | 2.0 | 0.00 | 0.00 | 0.00 | 86 | 1019.0 |
| 20260906054305 | 67 | 235 | 1.0 | 2.0 | 0.00 | 0.00 | 0.00 | 86 | 1019.0 |
| 20260906054207 | 66 | 235 | 2.0 | 2.0 | 0.00 | 0.00 | 0.00 | 86 | 1019.0 |
| 20260906054105 | 66 | 235 | 1.0 | 2.0 | 0.00 | 0.00 | 0.00 | 86 | 1018.9 |
| 20260906054006 | 66 | 235 | 0.0 | 2.0 | 0.00 | 0.00 | 0.00 | 86 | 1018.9 |
| 20260906053907 | 66 | 235 | 0.0 | 2.0 | 0.00 | 0.00 | 0.00 | 87 | 1019.0 |
| 20260906053805 | 66 | 235 | 0.0 | 2.0 | 0.00 | 0.00 | 0.00 | 87 | 1018.9 |
| 20260906053705 | 66 | 235 | 0.0 | 2.0 | 0.00 | 0.00 | 0.00 | 87 | 1018.9 |
| 20260906053607 | 66 | 235 | 0.0 | 2.0 | 0.00 | 0.00 | 0.00 | 87 | 1019.0 |
| 20260906053504 | 65 | 235 | 1.0 | 2.0 | 0.00 | 0.00 | 0.00 | 87 | 1019.0 |
| 20260906053405 | 65 | 235 | 2.0 | 2.0 | 0.00 | 0.00 | 0.00 | 87 | 1019.0 |
| 20260906053205 | 65 | 235 | 0.0 | 2.0 | 0.00 | 0.00 | 0.00 | 87 | 1019.0 |
| 20260906052905 | 65 | 235 | 0.0 | 2.0 | 0.00 | 0.00 | 0.00 | 87 | 1019.0 |
| 20260906052805 | 65 | 235 | 0.0 | 2.0 | 0.00 | 0.00 | 0.00 | 87 | 1018.9 |
| 20260906052707 | 65 | 235 | 1.0 | 2.0 | 0.00 | 0.00 | 0.00 | 87 | 1018.9 |
| 20260906052506 | 65 | 235 | 0.0 | 2.0 | 0.00 | 0.00 | 0.00 | 87 | 1018.9 |
| 20260906052407 | 65 | 235 | 0.0 | 2.0 | 0.00 | 0.00 | 0.00 | 87 | 1018.9 |
| 20260906052306 | 65 | 235 | 0.0 | 2.0 | 0.00 | 0.00 | 0.00 | 87 | 1018.8 |
| 20260906052204 | 65 | 235 | 0.0 | 2.0 | 0.00 | 0.00 | 0.00 | 87 | 1018.8 |
| 20260906052107 | 64 | 235 | 0.0 | 2.0 | 0.00 | 0.00 | 0.00 | 87 | 1018.8 |
| 20260906052006 | 64 | 235 | 1.0 | 2.0 | 0.00 | 0.00 | 0.00 | 87 | 1018.8 |
| 20260906051904 | 64 | 235 | 1.0 | 2.0 | 0.00 | 0.00 | 0.00 | 87 | 1018.8 |
| 20260906051705 | 64 | 235 | 0.0 | 2.0 | 0.00 | 0.00 | 0.00 | 87 | 1018.8 |
| 20260906051604 | 64 | 235 | 0.0 | 2.0 | 0.00 | 0.00 | 0.00 | 87 | 1018.8 |
| 20260906051508 | 64 | 235 | 2.0 | 2.0 | 0.00 | 0.00 | 0.00 | 87 | 1018.8 |
| 20260906051405 | 64 | 235 | 1.0 | 2.0 | 0.00 | 0.00 | 0.00 | 87 | 1018.8 |
| 20260906051304 | 64 | 235 | 1.0 | 2.0 | 0.00 | 0.00 | 0.00 | 86 | 1018.8 |
| 20260906051105 | 64 | 235 | 1.0 | 3.0 | 0.00 | 0.00 | 0.00 | 86 | 1018.7 |
| 20260906051006 | 64 | 235 | 1.0 | 3.0 | 0.00 | 0.00 | 0.00 | 86 | 1018.7 |
| 20260906050704 | 64 | 235 | 1.0 | 3.0 | 0.00 | 0.00 | 0.00 | 86 | 1018.7 |
| 20260906050607 | 64 | 235 | 2.0 | 3.0 | 0.00 | 0.00 | 0.00 | 86 | 1018.7 |
| 20260906050405 | 64 | 235 | 2.0 | 3.0 | 0.00 | 0.00 | 0.00 | 86 | 1018.6 |
| 20260906050307 | 64 | 235 | 2.0 | 3.0 | 0.00 | 0.00 | 0.00 | 86 | 1018.6 |
| 20260906050205 | 64 | 235 | 2.0 | 3.0 | 0.00 | 0.00 | 0.00 | 86 | 1018.6 |
| 20260906050105 | 64 | 235 | 2.0 | 3.0 | 0.00 | 0.00 | 0.00 | 86 | 1018.6 |
| 20260906050012 | 64 | 235 | 2.0 | 2.0 | 0.00 | 0.00 | 0.00 | 85 | 1018.6 |
| 20260906045905 | 64 | 236 | 0.0 | 1.0 | 0.00 | 0.00 | 0.00 | 85 | 1018.6 |
| 20260906045708 | 64 | 236 | 1.0 | 1.0 | 0.00 | 0.00 | 0.00 | 85 | 1018.6 |
| 20260906045505 | 64 | 236 | 1.0 | 1.0 | 0.00 | 0.00 | 0.00 | 86 | 1018.6 |
| 20260906045408 | 64 | 236 | 0.0 | 1.0 | 0.00 | 0.00 | 0.00 | 86 | 1018.6 |
| 20260906045205 | 64 | 236 | 0.0 | 2.0 | 0.00 | 0.00 | 0.00 | 85 | 1018.6 |
| 20260906045106 | 64 | 236 | 0.0 | 2.0 | 0.00 | 0.00 | 0.00 | 86 | 1018.5 |
| 20260906044807 | 64 | 236 | 0.0 | 2.0 | 0.00 | 0.00 | 0.00 | 86 | 1018.6 |
| 20260906044705 | 64 | 236 | 1.0 | 2.0 | 0.00 | 0.00 | 0.00 | 86 | 1018.6 |
| 20260906044507 | 64 | 236 | 0.0 | 2.0 | 0.00 | 0.00 | 0.00 | 85 | 1018.6 |
| 20260906044405 | 64 | 236 | 0.0 | 2.0 | 0.00 | 0.00 | 0.00 | 85 | 1018.5 |
| 20260906044304 | 64 | 236 | 1.0 | 2.0 | 0.00 | 0.00 | 0.00 | 85 | 1018.5 |
| 20260906044207 | 64 | 236 | 2.0 | 2.0 | 0.00 | 0.00 | 0.00 | 85 | 1018.5 |
| 20260906044105 | 64 | 236 | 0.0 | 2.0 | 0.00 | 0.00 | 0.00 | 85 | 1018.5 |
| 20260906044005 | 64 | 236 | 0.0 | 2.0 | 0.00 | 0.00 | 0.00 | 85 | 1018.5 |
| 20260906043805 | 64 | 236 | 0.0 | 3.0 | 0.00 | 0.00 | 0.00 | 85 | 1018.5 |
| 20260906043705 | 64 | 236 | 1.0 | 3.0 | 0.00 | 0.00 | 0.00 | 85 | 1018.5 |
| 20260906043607 | 64 | 236 | 1.0 | 3.0 | 0.00 | 0.00 | 0.00 | 85 | 1018.5 |
| 20260906043505 | 64 | 236 | 1.0 | 3.0 | 0.00 | 0.00 | 0.00 | 85 | 1018.4 |
| 20260906043405 | 64 | 236 | 1.0 | 3.0 | 0.00 | 0.00 | 0.00 | 85 | 1018.4 |
| 20260906043308 | 64 | 236 | 0.0 | 3.0 | 0.00 | 0.00 | 0.00 | 85 | 1018.4 |
| 20260906043206 | 64 | 236 | 0.0 | 3.0 | 0.00 | 0.00 | 0.00 | 85 | 1018.4 |
| 20260906043105 | 64 | 236 | 0.0 | 3.0 | 0.00 | 0.00 | 0.00 | 85 | 1018.4 |
| 20260906043009 | 64 | 236 | 1.0 | 3.0 | 0.00 | 0.00 | 0.00 | 85 | 1018.4 |
| 20260906042905 | 64 | 236 | 2.0 | 3.0 | 0.00 | 0.00 | 0.00 | 85 | 1018.3 |
| 20260906042806 | 64 | 236 | 2.0 | 3.0 | 0.00 | 0.00 | 0.00 | 85 | 1018.3 |
| 20260906042708 | 64 | 236 | 2.0 | 3.0 | 0.00 | 0.00 | 0.00 | 85 | 1018.4 |
| 20260906042605 | 64 | 236 | 1.0 | 3.0 | 0.00 | 0.00 | 0.00 | 85 | 1018.4 |
| 20260906042505 | 64 | 236 | 1.0 | 3.0 | 0.00 | 0.00 | 0.00 | 85 | 1018.3 |
| 20260906042407 | 64 | 236 | 1.0 | 4.0 | 0.00 | 0.00 | 0.00 | 85 | 1018.3 |
| 20260906042306 | 64 | 236 | 1.0 | 4.0 | 0.00 | 0.00 | 0.00 | 85 | 1018.3 |
| 20260906042106 | 64 | 236 | 3.0 | 4.0 | 0.00 | 0.00 | 0.00 | 85 | 1018.2 |
| 20260906041904 | 64 | 236 | 2.0 | 4.0 | 0.00 | 0.00 | 0.00 | 85 | 1018.2 |
| 20260906041806 | 64 | 236 | 2.0 | 4.0 | 0.00 | 0.00 | 0.00 | 86 | 1018.3 |
| 20260906041604 | 64 | 236 | 1.0 | 4.0 | 0.00 | 0.00 | 0.00 | 86 | 1018.2 |
| 20260906041508 | 64 | 236 | 2.0 | 4.0 | 0.00 | 0.00 | 0.00 | 86 | 1018.2 |
| 20260906041404 | 64 | 236 | 3.0 | 4.0 | 0.00 | 0.00 | 0.00 | 86 | 1018.2 |
| 20260906041305 | 63 | 236 | 3.0 | 4.0 | 0.00 | 0.00 | 0.00 | 86 | 1018.1 |
| 20260906041207 | 63 | 236 | 3.0 | 4.0 | 0.00 | 0.00 | 0.00 | 86 | 1018.2 |
| 20260906041104 | 63 | 236 | 3.0 | 4.0 | 0.00 | 0.00 | 0.00 | 86 | 1018.2 |
| 20260906041005 | 63 | 236 | 3.0 | 4.0 | 0.00 | 0.00 | 0.00 | 86 | 1018.2 |
| 20260906040907 | 63 | 236 | 4.0 | 4.0 | 0.00 | 0.00 | 0.00 | 86 | 1018.2 |
| 20260906040805 | 63 | 236 | 4.0 | 4.0 | 0.00 | 0.00 | 0.00 | 86 | 1018.1 |
| 20260906040705 | 63 | 236 | 4.0 | 4.0 | 0.00 | 0.00 | 0.00 | 86 | 1018.2 |
| 20260906040607 | 63 | 236 | 3.0 | 4.0 | 0.00 | 0.00 | 0.00 | 86 | 1018.2 |
| 20260906040504 | 63 | 236 | 3.0 | 4.0 | 0.00 | 0.00 | 0.00 | 86 | 1018.1 |
| 20260906040404 | 63 | 236 | 3.0 | 4.0 | 0.00 | 0.00 | 0.00 | 86 | 1018.2 |
| 20260906040308 | 63 | 236 | 3.0 | 4.0 | 0.00 | 0.00 | 0.00 | 86 | 1018.1 |
| 20260906040205 | 63 | 236 | 3.0 | 4.0 | 0.00 | 0.00 | 0.00 | 86 | 1018.1 |
| 20260906040011 | 63 | 236 | 3.0 | 4.0 | 0.00 | 0.00 | 0.00 | 86 | 1018.1 |
| 20260906035905 | 63 | 236 | 3.0 | 3.0 | 0.00 | 0.00 | 0.00 | 86 | 1018.1 |
| 20260906035805 | 63 | 236 | 2.0 | 3.0 | 0.00 | 0.00 | 0.00 | 86 | 1018.1 |
| 20260906035708 | 63 | 236 | 2.0 | 3.0 | 0.00 | 0.00 | 0.00 | 86 | 1018.1 |
| 20260906035407 | 63 | 236 | 2.0 | 3.0 | 0.00 | 0.00 | 0.00 | 86 | 1018.1 |
| 20260906035306 | 63 | 236 | 2.0 | 3.0 | 0.00 | 0.00 | 0.00 | 86 | 1018.1 |
| 20260906035205 | 63 | 236 | 2.0 | 3.0 | 0.00 | 0.00 | 0.00 | 86 | 1018.1 |
| 20260906035110 | 63 | 236 | 2.0 | 3.0 | 0.00 | 0.00 | 0.00 | 86 | 1018.1 |
| 20260906035005 | 63 | 236 | 2.0 | 4.0 | 0.00 | 0.00 | 0.00 | 86 | 1018.1 |
| 20260906034905 | 63 | 236 | 2.0 | 4.0 | 0.00 | 0.00 | 0.00 | 86 | 1018.1 |
| 20260906034807 | 63 | 236 | 1.0 | 4.0 | 0.00 | 0.00 | 0.00 | 86 | 1018.0 |
| 20260906034705 | 63 | 236 | 1.0 | 4.0 | 0.00 | 0.00 | 0.00 | 86 | 1017.9 |
| 20260906034605 | 64 | 236 | 2.0 | 4.0 | 0.00 | 0.00 | 0.00 | 86 | 1018.0 |
| 20260906034507 | 64 | 236 | 2.0 | 4.0 | 0.00 | 0.00 | 0.00 | 86 | 1017.9 |
| 20260906034304 | 64 | 236 | 2.0 | 4.0 | 0.00 | 0.00 | 0.00 | 85 | 1017.9 |
| 20260906034105 | 64 | 236 | 3.0 | 4.0 | 0.00 | 0.00 | 0.00 | 85 | 1017.9 |
| 20260906033907 | 64 | 190 | 3.0 | 4.0 | 0.00 | 0.00 | 0.00 | 85 | 1017.9 |
| 20260906033805 | 64 | 190 | 2.0 | 4.0 | 0.00 | 0.00 | 0.00 | 85 | 1017.9 |
| 20260906033607 | 64 | 190 | 3.0 | 4.0 | 0.00 | 0.00 | 0.00 | 85 | 1017.8 |
| 20260906033505 | 64 | 190 | 3.0 | 5.0 | 0.00 | 0.00 | 0.00 | 85 | 1017.8 |
| 20260906033307 | 64 | 190 | 3.0 | 5.0 | 0.00 | 0.00 | 0.00 | 85 | 1017.9 |
| 20260906033105 | 64 | 190 | 2.0 | 6.0 | 0.00 | 0.00 | 0.00 | 85 | 1017.9 |
| 20260906032905 | 64 | 190 | 3.0 | 6.0 | 0.00 | 0.00 | 0.00 | 85 | 1017.9 |
| 20260906032806 | 64 | 190 | 4.0 | 6.0 | 0.00 | 0.00 | 0.00 | 85 | 1017.9 |
| 20260906032707 | 64 | 190 | 3.0 | 6.0 | 0.00 | 0.00 | 0.00 | 85 | 1017.9 |
| 20260906032605 | 64 | 190 | 4.0 | 6.0 | 0.00 | 0.00 | 0.00 | 85 | 1017.9 |
| 20260906032505 | 64 | 190 | 4.0 | 6.0 | 0.00 | 0.00 | 0.00 | 85 | 1017.9 |
| 20260906032407 | 64 | 190 | 4.0 | 6.0 | 0.00 | 0.00 | 0.00 | 85 | 1017.9 |
| 20260906032306 | 64 | 190 | 4.0 | 6.0 | 0.00 | 0.00 | 0.00 | 85 | 1017.9 |
| 20260906032205 | 64 | 190 | 5.0 | 8.0 | 0.00 | 0.00 | 0.00 | 85 | 1017.8 |
| 20260906032107 | 64 | 190 | 4.0 | 8.0 | 0.00 | 0.00 | 0.00 | 85 | 1017.8 |
| 20260906032007 | 64 | 190 | 5.0 | 8.0 | 0.00 | 0.00 | 0.00 | 85 | 1017.9 |
| 20260906031905 | 64 | 190 | 5.0 | 8.0 | 0.00 | 0.00 | 0.00 | 85 | 1017.9 |
| 20260906031806 | 64 | 190 | 5.0 | 8.0 | 0.00 | 0.00 | 0.00 | 85 | 1017.8 |
| 20260906031705 | 64 | 190 | 5.0 | 8.0 | 0.00 | 0.00 | 0.00 | 85 | 1017.9 |
| 20260906031605 | 64 | 190 | 6.0 | 8.0 | 0.00 | 0.00 | 0.00 | 85 | 1017.9 |
| 20260906031405 | 64 | 185 | 6.0 | 8.0 | 0.00 | 0.00 | 0.00 | 85 | 1017.9 |
| 20260906031305 | 64 | 181 | 5.0 | 8.0 | 0.00 | 0.00 | 0.00 | 85 | 1017.9 |
| 20260906031206 | 64 | 180 | 6.0 | 7.0 | 0.00 | 0.00 | 0.00 | 85 | 1017.9 |
| 20260906031006 | 64 | 184 | 7.0 | 7.0 | 0.00 | 0.00 | 0.00 | 85 | 1018.0 |
| 20260906030907 | 64 | 187 | 6.0 | 7.0 | 0.00 | 0.00 | 0.00 | 85 | 1017.9 |
| 20260906030805 | 64 | 187 | 5.0 | 7.0 | 0.00 | 0.00 | 0.00 | 84 | 1017.9 |
| 20260906030705 | 64 | 187 | 5.0 | 7.0 | 0.00 | 0.00 | 0.00 | 84 | 1017.9 |
| 20260906030608 | 64 | 186 | 6.0 | 7.0 | 0.00 | 0.00 | 0.00 | 84 | 1017.9 |
| 20260906030505 | 64 | 183 | 6.0 | 7.0 | 0.00 | 0.00 | 0.00 | 84 | 1017.8 |
| 20260906030405 | 64 | 184 | 6.0 | 7.0 | 0.00 | 0.00 | 0.00 | 84 | 1017.9 |
| 20260906030306 | 64 | 184 | 6.0 | 7.0 | 0.00 | 0.00 | 0.00 | 84 | 1017.9 |
| 20260906030205 | 64 | 185 | 6.0 | 6.0 | 0.00 | 0.00 | 0.00 | 84 | 1017.9 |
| 20260906030105 | 64 | 186 | 4.0 | 6.0 | 0.00 | 0.00 | 0.00 | 84 | 1017.9 |
| 20260906030012 | 64 | 186 | 4.0 | 6.0 | 0.00 | 0.00 | 0.00 | 84 | 1017.9 |
| 20260906025904 | 64 | 238 | 4.0 | 5.0 | 0.00 | 0.00 | 0.00 | 84 | 1017.9 |
| 20260906025805 | 64 | 238 | 4.0 | 5.0 | 0.00 | 0.00 | 0.00 | 84 | 1017.9 |
| 20260906025708 | 64 | 342 | 2.0 | 5.0 | 0.00 | 0.00 | 0.00 | 84 | 1018.0 |
| 20260906025605 | 64 | 342 | 1.0 | 5.0 | 0.00 | 0.00 | 0.00 | 84 | 1018.0 |
| 20260906025505 | 64 | 342 | 2.0 | 5.0 | 0.00 | 0.00 | 0.00 | 84 | 1017.9 |
| 20260906025407 | 64 | 343 | 2.0 | 5.0 | 0.00 | 0.00 | 0.00 | 84 | 1017.8 |
| 20260906025306 | 64 | 342 | 2.0 | 5.0 | 0.00 | 0.00 | 0.00 | 84 | 1017.8 |
| 20260906025204 | 64 | 343 | 2.0 | 5.0 | 0.00 | 0.00 | 0.00 | 84 | 1017.8 |
| 20260906024905 | 64 | 338 | 5.0 | 9.0 | 0.00 | 0.00 | 0.00 | 84 | 1017.9 |
| 20260906024604 | 64 | 28 | 0.0 | 9.0 | 0.00 | 0.00 | 0.00 | 84 | 1017.9 |
| 20260906024507 | 64 | 25 | 3.0 | 9.0 | 0.00 | 0.00 | 0.00 | 85 | 1017.9 |
| 20260906024303 | 64 | 332 | 2.0 | 9.0 | 0.00 | 0.00 | 0.00 | 85 | 1017.7 |
| 20260906024206 | 64 | 332 | 1.0 | 9.0 | 0.00 | 0.00 | 0.00 | 85 | 1017.8 |
| 20260906024105 | 64 | 17 | 2.0 | 9.0 | 0.00 | 0.00 | 0.00 | 85 | 1017.8 |
| 20260906023805 | 64 | 32 | 5.0 | 8.0 | 0.00 | 0.00 | 0.00 | 86 | 1017.7 |
| 20260906023704 | 64 | 36 | 3.0 | 8.0 | 0.00 | 0.00 | 0.00 | 86 | 1017.7 |
| 20260906023607 | 63 | 29 | 6.0 | 8.0 | 0.00 | 0.00 | 0.00 | 87 | 1017.8 |
| 20260906023505 | 63 | 31 | 7.0 | 8.0 | 0.00 | 0.00 | 0.00 | 87 | 1017.7 |
| 20260906023405 | 63 | 25 | 5.0 | 6.0 | 0.00 | 0.00 | 0.00 | 87 | 1017.7 |
| 20260906023308 | 63 | 22 | 3.0 | 5.0 | 0.00 | 0.00 | 0.00 | 88 | 1017.7 |
| 20260906023205 | 63 | 19 | 3.0 | 4.0 | 0.00 | 0.00 | 0.00 | 88 | 1017.6 |
| 20260906023104 | 63 | 202 | 4.0 | 4.0 | 0.00 | 0.00 | 0.00 | 88 | 1017.6 |
| 20260906023009 | 63 | 202 | 3.0 | 4.0 | 0.00 | 0.00 | 0.00 | 88 | 1017.6 |
| 20260906022904 | 63 | 202 | 0.0 | 4.0 | 0.00 | 0.00 | 0.00 | 88 | 1017.5 |
| 20260906022805 | 63 | 202 | 0.0 | 4.0 | 0.00 | 0.00 | 0.00 | 88 | 1017.5 |
| 20260906022708 | 63 | 202 | 1.0 | 4.0 | 0.00 | 0.00 | 0.00 | 88 | 1017.5 |
| 20260906022606 | 63 | 202 | 1.0 | 5.0 | 0.00 | 0.00 | 0.00 | 88 | 1017.5 |
| 20260906022505 | 63 | 202 | 1.0 | 5.0 | 0.00 | 0.00 | 0.00 | 88 | 1017.4 |
| 20260906022407 | 63 | 202 | 3.0 | 5.0 | 0.00 | 0.00 | 0.00 | 88 | 1017.4 |
| 20260906022203 | 63 | 202 | 3.0 | 5.0 | 0.00 | 0.00 | 0.00 | 88 | 1017.4 |
| 20260906022107 | 63 | 202 | 3.0 | 5.0 | 0.00 | 0.00 | 0.00 | 88 | 1017.4 |
| 20260906022005 | 63 | 202 | 3.0 | 5.0 | 0.00 | 0.00 | 0.00 | 88 | 1017.3 |
| 20260906021808 | 63 | 202 | 3.0 | 5.0 | 0.00 | 0.00 | 0.00 | 88 | 1017.3 |
| 20260906021705 | 63 | 202 | 3.0 | 5.0 | 0.00 | 0.00 | 0.00 | 88 | 1017.3 |
| 20260906021604 | 63 | 202 | 4.0 | 5.0 | 0.00 | 0.00 | 0.00 | 88 | 1017.4 |
| 20260906021404 | 63 | 202 | 4.0 | 4.0 | 0.00 | 0.00 | 0.00 | 88 | 1017.4 |
| 20260906021305 | 63 | 202 | 4.0 | 4.0 | 0.00 | 0.00 | 0.00 | 88 | 1017.4 |
| 20260906021207 | 63 | 230 | 3.0 | 4.0 | 0.00 | 0.00 | 0.00 | 88 | 1017.4 |
| 20260906021105 | 63 | 230 | 2.0 | 4.0 | 0.00 | 0.00 | 0.00 | 88 | 1017.4 |
| 20260906021005 | 63 | 230 | 3.0 | 3.0 | 0.00 | 0.00 | 0.00 | 88 | 1017.4 |
| 20260906020907 | 63 | 230 | 2.0 | 3.0 | 0.00 | 0.00 | 0.00 | 88 | 1017.4 |
| 20260906020805 | 63 | 230 | 2.0 | 3.0 | 0.00 | 0.00 | 0.00 | 87 | 1017.3 |
| 20260906020705 | 63 | 230 | 1.0 | 2.0 | 0.00 | 0.00 | 0.00 | 87 | 1017.3 |
| 20260906020607 | 63 | 230 | 0.0 | 2.0 | 0.00 | 0.00 | 0.00 | 87 | 1017.4 |
| 20260906020505 | 63 | 230 | 0.0 | 2.0 | 0.00 | 0.00 | 0.00 | 87 | 1017.4 |
| 20260906020405 | 63 | 230 | 1.0 | 2.0 | 0.00 | 0.00 | 0.00 | 87 | 1017.3 |
| 20260906020307 | 63 | 230 | 0.0 | 2.0 | 0.00 | 0.00 | 0.00 | 87 | 1017.4 |
| 20260906020205 | 63 | 230 | 0.0 | 2.0 | 0.00 | 0.00 | 0.00 | 87 | 1017.3 |
| 20260906020013 | 63 | 230 | 1.0 | 2.0 | 0.00 | 0.00 | 0.00 | 87 | 1017.4 |
| 20260906015905 | 63 | 230 | 1.0 | 2.0 | 0.00 | 0.00 | 0.00 | 87 | 1017.3 |
| 20260906015805 | 63 | 230 | 1.0 | 3.0 | 0.00 | 0.00 | 0.00 | 87 | 1017.3 |
| 20260906015708 | 63 | 230 | 1.0 | 3.0 | 0.00 | 0.00 | 0.00 | 87 | 1017.3 |
| 20260906015605 | 63 | 230 | 1.0 | 3.0 | 0.00 | 0.00 | 0.00 | 87 | 1017.3 |
| 20260906015506 | 64 | 230 | 1.0 | 3.0 | 0.00 | 0.00 | 0.00 | 87 | 1017.3 |
| 20260906015406 | 64 | 230 | 1.0 | 3.0 | 0.00 | 0.00 | 0.00 | 87 | 1017.3 |
| 20260906015205 | 64 | 230 | 0.0 | 3.0 | 0.00 | 0.00 | 0.00 | 87 | 1017.3 |
| 20260906015107 | 64 | 230 | 0.0 | 3.0 | 0.00 | 0.00 | 0.00 | 87 | 1017.3 |
| 20260906015005 | 64 | 230 | 1.0 | 3.0 | 0.00 | 0.00 | 0.00 | 87 | 1017.2 |
| 20260906014904 | 64 | 230 | 1.0 | 3.0 | 0.00 | 0.00 | 0.00 | 86 | 1017.3 |
| 20260906014807 | 64 | 230 | 2.0 | 3.0 | 0.00 | 0.00 | 0.00 | 86 | 1017.3 |
| 20260906014705 | 64 | 230 | 2.0 | 3.0 | 0.00 | 0.00 | 0.00 | 86 | 1017.2 |
| 20260906014605 | 64 | 230 | 3.0 | 3.0 | 0.00 | 0.00 | 0.00 | 86 | 1017.2 |
| 20260906014508 | 64 | 230 | 0.0 | 0.0 | 0.00 | 0.00 | 0.00 | 86 | 1017.2 |
| 20260906014304 | 64 | 230 | 0.0 | 0.0 | 0.00 | 0.00 | 0.00 | 86 | 1017.1 |
| 20260906014107 | 64 | 230 | 0.0 | 0.0 | 0.00 | 0.00 | 0.00 | 86 | 1017.1 |
| 20260906014005 | 64 | 230 | 0.0 | 0.0 | 0.00 | 0.00 | 0.00 | 86 | 1017.1 |
| 20260906013807 | 64 | 230 | 0.0 | 0.0 | 0.00 | 0.00 | 0.00 | 86 | 1017.1 |
| 20260906013705 | 64 | 230 | 0.0 | 1.0 | 0.00 | 0.00 | 0.00 | 86 | 1017.1 |
| 20260906013604 | 64 | 230 | 0.0 | 1.0 | 0.00 | 0.00 | 0.00 | 86 | 1017.1 |
| 20260906013507 | 64 | 230 | 0.0 | 1.0 | 0.00 | 0.00 | 0.00 | 86 | 1017.2 |
| 20260906013404 | 64 | 230 | 0.0 | 2.0 | 0.00 | 0.00 | 0.00 | 86 | 1017.1 |
| 20260906013304 | 64 | 230 | 0.0 | 3.0 | 0.00 | 0.00 | 0.00 | 86 | 1017.1 |
| 20260906013207 | 64 | 230 | 0.0 | 3.0 | 0.00 | 0.00 | 0.00 | 86 | 1017.1 |
| 20260906013104 | 64 | 230 | 0.0 | 3.0 | 0.00 | 0.00 | 0.00 | 86 | 1017.1 |
| 20260906013005 | 64 | 230 | 0.0 | 3.0 | 0.00 | 0.00 | 0.00 | 86 | 1017.1 |
| 20260906012907 | 64 | 230 | 0.0 | 3.0 | 0.00 | 0.00 | 0.00 | 86 | 1017.1 |
| 20260906012804 | 64 | 230 | 0.0 | 3.0 | 0.00 | 0.00 | 0.00 | 86 | 1017.1 |
| 20260906012505 | 64 | 230 | 0.0 | 3.0 | 0.00 | 0.00 | 0.00 | 85 | 1017.1 |
| 20260906012404 | 64 | 230 | 1.0 | 3.0 | 0.00 | 0.00 | 0.00 | 85 | 1017.1 |
| 20260906012307 | 64 | 230 | 2.0 | 3.0 | 0.00 | 0.00 | 0.00 | 85 | 1017.1 |
| 20260906012204 | 64 | 230 | 2.0 | 3.0 | 0.00 | 0.00 | 0.00 | 85 | 1017.1 |
| 20260906012105 | 64 | 230 | 2.0 | 2.0 | 0.00 | 0.00 | 0.00 | 85 | 1017.1 |
| 20260906012008 | 64 | 230 | 1.0 | 2.0 | 0.00 | 0.00 | 0.00 | 85 | 1017.1 |
| 20260906011904 | 64 | 230 | 2.0 | 2.0 | 0.00 | 0.00 | 0.00 | 85 | 1017.1 |
| 20260906011804 | 64 | 230 | 1.0 | 2.0 | 0.00 | 0.00 | 0.00 | 85 | 1017.1 |
| 20260906011707 | 64 | 230 | 2.0 | 2.0 | 0.00 | 0.00 | 0.00 | 85 | 1017.0 |
| 20260906011604 | 64 | 230 | 2.0 | 2.0 | 0.00 | 0.00 | 0.00 | 85 | 1017.1 |
| 20260906011505 | 64 | 230 | 2.0 | 2.0 | 0.00 | 0.00 | 0.00 | 85 | 1017.1 |
| 20260906011407 | 64 | 230 | 1.0 | 2.0 | 0.00 | 0.00 | 0.00 | 85 | 1017.1 |
| 20260906011304 | 64 | 230 | 1.0 | 2.0 | 0.00 | 0.00 | 0.00 | 85 | 1017.1 |
| 20260906011204 | 64 | 230 | 2.0 | 3.0 | 0.00 | 0.00 | 0.00 | 85 | 1017.1 |
| 20260906011107 | 64 | 230 | 1.0 | 3.0 | 0.00 | 0.00 | 0.00 | 84 | 1017.0 |
| 20260906011005 | 64 | 230 | 1.0 | 3.0 | 0.00 | 0.00 | 0.00 | 84 | 1017.0 |
| 20260906010904 | 64 | 230 | 1.0 | 3.0 | 0.00 | 0.00 | 0.00 | 84 | 1017.0 |
| 20260906010704 | 64 | 230 | 2.0 | 3.0 | 0.00 | 0.00 | 0.00 | 84 | 1017.0 |
| 20260906010604 | 64 | 230 | 1.0 | 3.0 | 0.00 | 0.00 | 0.00 | 84 | 1017.0 |
| 20260906010507 | 64 | 230 | 2.0 | 3.0 | 0.00 | 0.00 | 0.00 | 84 | 1017.0 |
| 20260906010104 | 64 | 230 | 2.0 | 3.0 | 0.00 | 0.00 | 0.00 | 84 | 1016.9 |
| 20260906010007 | 64 | 230 | 3.0 | 3.0 | 0.00 | 0.00 | 0.00 | 84 | 1016.9 |
| 20260906005804 | 65 | 230 | 2.0 | 3.0 | 0.00 | 0.00 | 0.00 | 84 | 1016.9 |
| 20260906005704 | 65 | 230 | 3.0 | 3.0 | 0.00 | 0.00 | 0.00 | 84 | 1016.9 |
| 20260906005607 | 65 | 201 | 3.0 | 3.0 | 0.00 | 0.00 | 0.00 | 84 | 1016.9 |
| 20260906005404 | 65 | 201 | 1.0 | 2.0 | 0.00 | 0.00 | 0.00 | 84 | 1016.9 |
| 20260906005106 | 65 | 201 | 0.0 | 2.0 | 0.00 | 0.00 | 0.00 | 84 | 1016.9 |
| 20260906005007 | 65 | 201 | 1.0 | 3.0 | 0.00 | 0.00 | 0.00 | 83 | 1016.9 |
| 20260906004904 | 65 | 201 | 1.0 | 3.0 | 0.00 | 0.00 | 0.00 | 83 | 1016.9 |
| 20260906004806 | 65 | 201 | 0.0 | 3.0 | 0.00 | 0.00 | 0.00 | 83 | 1016.9 |
| 20260906004707 | 65 | 201 | 0.0 | 3.0 | 0.00 | 0.00 | 0.00 | 83 | 1016.9 |
| 20260906004504 | 65 | 201 | 0.0 | 3.0 | 0.00 | 0.00 | 0.00 | 83 | 1016.9 |
| 20260906004407 | 65 | 201 | 0.0 | 4.0 | 0.00 | 0.00 | 0.00 | 83 | 1016.9 |
| 20260906004204 | 65 | 201 | 0.0 | 4.0 | 0.00 | 0.00 | 0.00 | 83 | 1016.9 |
| 20260906004107 | 65 | 201 | 1.0 | 4.0 | 0.00 | 0.00 | 0.00 | 83 | 1017.0 |
| 20260906004005 | 65 | 201 | 3.0 | 4.0 | 0.00 | 0.00 | 0.00 | 83 | 1016.9 |
| 20260906003905 | 65 | 201 | 2.0 | 4.0 | 0.00 | 0.00 | 0.00 | 83 | 1016.9 |
| 20260906003807 | 65 | 201 | 1.0 | 4.0 | 0.00 | 0.00 | 0.00 | 83 | 1017.0 |
| 20260906003705 | 65 | 201 | 3.0 | 4.0 | 0.00 | 0.00 | 0.00 | 83 | 1016.9 |
| 20260906003604 | 65 | 201 | 2.0 | 5.0 | 0.00 | 0.00 | 0.00 | 83 | 1016.9 |
| 20260906003507 | 65 | 201 | 3.0 | 5.0 | 0.00 | 0.00 | 0.00 | 83 | 1017.0 |
| 20260906003303 | 65 | 201 | 3.0 | 5.0 | 0.00 | 0.00 | 0.00 | 83 | 1017.0 |
| 20260906003104 | 65 | 201 | 3.0 | 5.0 | 0.00 | 0.00 | 0.00 | 83 | 1017.0 |
| 20260906003005 | 65 | 212 | 2.0 | 5.0 | 0.00 | 0.00 | 0.00 | 83 | 1016.9 |
| 20260906002907 | 65 | 212 | 2.0 | 5.0 | 0.00 | 0.00 | 0.00 | 83 | 1017.0 |
| 20260906002704 | 65 | 212 | 3.0 | 5.0 | 0.00 | 0.00 | 0.00 | 83 | 1016.9 |
| 20260906002607 | 65 | 212 | 4.0 | 5.0 | 0.00 | 0.00 | 0.00 | 83 | 1016.9 |
| 20260906002404 | 65 | 198 | 4.0 | 5.0 | 0.00 | 0.00 | 0.00 | 83 | 1017.0 |
| 20260906002307 | 65 | 198 | 4.0 | 5.0 | 0.00 | 0.00 | 0.00 | 83 | 1016.9 |
| 20260906002204 | 65 | 198 | 4.0 | 5.0 | 0.00 | 0.00 | 0.00 | 83 | 1017.0 |
| 20260906002104 | 65 | 198 | 4.0 | 5.0 | 0.00 | 0.00 | 0.00 | 83 | 1016.9 |
| 20260906002008 | 65 | 198 | 3.0 | 5.0 | 0.00 | 0.00 | 0.00 | 83 | 1016.9 |
| 20260906001904 | 65 | 198 | 4.0 | 5.0 | 0.00 | 0.00 | 0.00 | 83 | 1016.9 |
| 20260906001707 | 65 | 225 | 3.0 | 4.0 | 0.00 | 0.00 | 0.00 | 83 | 1016.9 |
| 20260906001604 | 64 | 225 | 3.0 | 4.0 | 0.00 | 0.00 | 0.00 | 83 | 1016.9 |
| 20260906001504 | 64 | 225 | 2.0 | 4.0 | 0.00 | 0.00 | 0.00 | 83 | 1017.0 |
| 20260906001407 | 64 | 225 | 2.0 | 4.0 | 0.00 | 0.00 | 0.00 | 83 | 1016.9 |
| 20260906001304 | 64 | 225 | 2.0 | 4.0 | 0.00 | 0.00 | 0.00 | 83 | 1017.0 |
| 20260906001205 | 64 | 225 | 3.0 | 4.0 | 0.00 | 0.00 | 0.00 | 83 | 1016.9 |
| 20260906001107 | 64 | 225 | 3.0 | 4.0 | 0.00 | 0.00 | 0.00 | 83 | 1016.9 |
| 20260906000904 | 64 | 225 | 3.0 | 4.0 | 0.00 | 0.00 | 0.00 | 83 | 1016.9 |
| 20260906000807 | 64 | 225 | 3.0 | 4.0 | 0.00 | 0.00 | 0.00 | 83 | 1016.9 |
| 20260906000704 | 64 | 225 | 3.0 | 4.0 | 0.00 | 0.00 | 0.00 | 83 | 1016.9 |
| 20260906000507 | 64 | 227 | 3.0 | 4.0 | 0.00 | 0.00 | 0.00 | 83 | 1016.9 |
| 20260906000404 | 64 | 227 | 3.0 | 4.0 | 0.00 | 0.00 | 0.00 | 82 | 1016.9 |
| 20260906000304 | 64 | 227 | 3.0 | 4.0 | 0.00 | 0.00 | 0.00 | 82 | 1017.0 |
| 20260906000207 | 64 | 227 | 2.0 | 4.0 | 0.00 | 0.00 | 0.00 | 82 | 1016.9 |
| 20260906000117 | 64 | 227 | 3.0 | 3.0 | 0.00 | 0.00 | 0.00 | 82 | 1016.9 |
| 20260906000007 | 64 | 227 | 3.0 | 3.0 | 0.00 | 0.00 | 0.00 | 82 | 1017.0 |
| 20260905235906 | 64 | 227 | 2.0 | 3.0 | 0.00 | 0.00 | 0.00 | 82 | 1016.9 |
| 20260905235804 | 64 | 227 | 3.0 | 3.0 | 0.00 | 0.00 | 0.00 | 82 | 1016.9 |
| 20260905235504 | 65 | 22 | 2.0 | 3.0 | 0.00 | 0.00 | 0.00 | 82 | 1016.9 |
| 20260905235405 | 65 | 22 | 2.0 | 3.0 | 0.00 | 0.00 | 0.00 | 81 | 1016.9 |
| 20260905235307 | 65 | 22 | 3.0 | 3.0 | 0.00 | 0.00 | 0.00 | 81 | 1016.9 |
| 20260905235205 | 65 | 22 | 3.0 | 3.0 | 0.00 | 0.00 | 0.00 | 81 | 1016.9 |
| 20260905235104 | 65 | 22 | 3.0 | 4.0 | 0.00 | 0.00 | 0.00 | 81 | 1016.9 |
| 20260905235007 | 65 | 22 | 3.0 | 4.0 | 0.00 | 0.00 | 0.00 | 81 | 1016.8 |
| 20260905234604 | 65 | 22 | 3.0 | 4.0 | 0.00 | 0.00 | 0.00 | 81 | 1016.8 |
| 20260905234305 | 65 | 22 | 2.0 | 4.0 | 0.00 | 0.00 | 0.00 | 81 | 1016.7 |
| 20260905234204 | 65 | 22 | 3.0 | 4.0 | 0.00 | 0.00 | 0.00 | 81 | 1016.8 |
| 20260905234107 | 65 | 22 | 3.0 | 4.0 | 0.00 | 0.00 | 0.00 | 81 | 1016.7 |
| 20260905234005 | 65 | 22 | 3.0 | 4.0 | 0.00 | 0.00 | 0.00 | 81 | 1016.7 |
| 20260905233904 | 65 | 22 | 2.0 | 4.0 | 0.00 | 0.00 | 0.00 | 81 | 1016.8 |
| 20260905233807 | 65 | 22 | 2.0 | 4.0 | 0.00 | 0.00 | 0.00 | 81 | 1016.7 |
| 20260905233705 | 65 | 22 | 2.0 | 4.0 | 0.00 | 0.00 | 0.00 | 81 | 1016.7 |
| 20260905233604 | 65 | 22 | 2.0 | 4.0 | 0.00 | 0.00 | 0.00 | 81 | 1016.7 |
| 20260905233507 | 65 | 22 | 3.0 | 4.0 | 0.00 | 0.00 | 0.00 | 81 | 1016.7 |
| 20260905233404 | 65 | 22 | 3.0 | 4.0 | 0.00 | 0.00 | 0.00 | 81 | 1016.7 |
| 20260905233304 | 65 | 22 | 3.0 | 4.0 | 0.00 | 0.00 | 0.00 | 81 | 1016.7 |
| 20260905233208 | 65 | 22 | 3.0 | 3.0 | 0.00 | 0.00 | 0.00 | 81 | 1016.7 |
| 20260905233104 | 65 | 22 | 3.0 | 3.0 | 0.00 | 0.00 | 0.00 | 81 | 1016.7 |
| 20260905233005 | 65 | 22 | 3.0 | 3.0 | 0.00 | 0.00 | 0.00 | 81 | 1016.7 |
| 20260905232907 | 65 | 22 | 2.0 | 3.0 | 0.00 | 0.00 | 0.00 | 81 | 1016.7 |
| 20260905232704 | 65 | 22 | 2.0 | 3.0 | 0.00 | 0.00 | 0.00 | 81 | 1016.7 |
| 20260905232607 | 65 | 22 | 2.0 | 3.0 | 0.00 | 0.00 | 0.00 | 81 | 1016.7 |
| 20260905232504 | 65 | 22 | 2.0 | 3.0 | 0.00 | 0.00 | 0.00 | 81 | 1016.7 |
| 20260905232405 | 65 | 22 | 1.0 | 3.0 | 0.00 | 0.00 | 0.00 | 81 | 1016.7 |
| 20260905232307 | 65 | 22 | 2.0 | 3.0 | 0.00 | 0.00 | 0.00 | 81 | 1016.7 |
| 20260905232204 | 65 | 22 | 2.0 | 3.0 | 0.00 | 0.00 | 0.00 | 81 | 1016.7 |
| 20260905232104 | 65 | 22 | 2.0 | 3.0 | 0.00 | 0.00 | 0.00 | 81 | 1016.8 |
| 20260905232008 | 65 | 22 | 2.0 | 3.0 | 0.00 | 0.00 | 0.00 | 81 | 1016.7 |
| 20260905231904 | 65 | 22 | 2.0 | 3.0 | 0.00 | 0.00 | 0.00 | 81 | 1016.7 |
| 20260905231707 | 65 | 22 | 2.0 | 3.0 | 0.00 | 0.00 | 0.00 | 81 | 1016.8 |
| 20260905231604 | 65 | 22 | 3.0 | 3.0 | 0.00 | 0.00 | 0.00 | 81 | 1016.8 |
| 20260905231504 | 65 | 22 | 2.0 | 3.0 | 0.00 | 0.00 | 0.00 | 81 | 1016.8 |
| 20260905231407 | 65 | 22 | 2.0 | 2.0 | 0.00 | 0.00 | 0.00 | 81 | 1016.8 |
| 20260905231304 | 65 | 22 | 0.0 | 2.0 | 0.00 | 0.00 | 0.00 | 80 | 1016.8 |
| 20260905231107 | 65 | 22 | 0.0 | 2.0 | 0.00 | 0.00 | 0.00 | 81 | 1016.8 |
| 20260905231005 | 65 | 22 | 0.0 | 2.0 | 0.00 | 0.00 | 0.00 | 81 | 1016.8 |
| 20260905230904 | 65 | 22 | 1.0 | 2.0 | 0.00 | 0.00 | 0.00 | 81 | 1016.8 |
| 20260905230807 | 65 | 22 | 0.0 | 2.0 | 0.00 | 0.00 | 0.00 | 80 | 1016.8 |
| 20260905230404 | 65 | 22 | 0.0 | 2.0 | 0.00 | 0.00 | 0.00 | 80 | 1016.8 |
| 20260905230305 | 65 | 22 | 1.0 | 2.0 | 0.00 | 0.00 | 0.00 | 80 | 1016.8 |
| 20260905230207 | 65 | 22 | 1.0 | 2.0 | 0.00 | 0.00 | 0.00 | 80 | 1016.8 |
| 20260905230105 | 65 | 22 | 0.0 | 2.0 | 0.00 | 0.00 | 0.00 | 80 | 1016.7 |
| 20260905230008 | 65 | 22 | 0.0 | 2.0 | 0.00 | 0.00 | 0.00 | 80 | 1016.8 |
| 20260905225907 | 65 | 22 | 0.0 | 2.0 | 0.00 | 0.00 | 0.00 | 80 | 1016.8 |
| 20260905225804 | 65 | 22 | 0.0 | 2.0 | 0.00 | 0.00 | 0.00 | 80 | 1016.8 |
| 20260905225704 | 65 | 22 | 1.0 | 3.0 | 0.00 | 0.00 | 0.00 | 80 | 1016.8 |
| 20260905225607 | 66 | 22 | 1.0 | 3.0 | 0.00 | 0.00 | 0.00 | 81 | 1016.7 |
| 20260905225404 | 66 | 22 | 0.0 | 3.0 | 0.00 | 0.00 | 0.00 | 81 | 1016.7 |
| 20260905225204 | 66 | 22 | 1.0 | 3.0 | 0.00 | 0.00 | 0.00 | 81 | 1016.7 |
| 20260905225104 | 66 | 22 | 1.0 | 3.0 | 0.00 | 0.00 | 0.00 | 81 | 1016.7 |
| 20260905225008 | 66 | 22 | 2.0 | 3.0 | 0.00 | 0.00 | 0.00 | 81 | 1016.7 |
| 20260905224905 | 66 | 22 | 2.0 | 3.0 | 0.00 | 0.00 | 0.00 | 81 | 1016.7 |
| 20260905224804 | 66 | 22 | 1.0 | 3.0 | 0.00 | 0.00 | 0.00 | 81 | 1016.7 |
| 20260905224707 | 66 | 22 | 1.0 | 3.0 | 0.00 | 0.00 | 0.00 | 80 | 1016.7 |
| 20260905224604 | 66 | 22 | 2.0 | 3.0 | 0.00 | 0.00 | 0.00 | 80 | 1016.6 |
| 20260905224504 | 66 | 22 | 2.0 | 3.0 | 0.00 | 0.00 | 0.00 | 80 | 1016.6 |
| 20260905224304 | 66 | 22 | 1.0 | 3.0 | 0.00 | 0.00 | 0.00 | 80 | 1016.6 |
| 20260905224205 | 66 | 22 | 1.0 | 3.0 | 0.00 | 0.00 | 0.00 | 80 | 1016.6 |
| 20260905224107 | 66 | 22 | 1.0 | 3.0 | 0.00 | 0.00 | 0.00 | 80 | 1016.5 |
| 20260905224005 | 66 | 22 | 0.0 | 3.0 | 0.00 | 0.00 | 0.00 | 80 | 1016.5 |
| 20260905223904 | 66 | 22 | 2.0 | 3.0 | 0.00 | 0.00 | 0.00 | 80 | 1016.6 |
| 20260905223807 | 66 | 22 | 1.0 | 3.0 | 0.00 | 0.00 | 0.00 | 80 | 1016.6 |
| 20260905223604 | 66 | 22 | 2.0 | 3.0 | 0.00 | 0.00 | 0.00 | 80 | 1016.5 |
| 20260905223508 | 67 | 22 | 3.0 | 3.0 | 0.00 | 0.00 | 0.00 | 80 | 1016.5 |
| 20260905223404 | 67 | 22 | 3.0 | 3.0 | 0.00 | 0.00 | 0.00 | 79 | 1016.5 |
| 20260905223304 | 67 | 22 | 2.0 | 3.0 | 0.00 | 0.00 | 0.00 | 79 | 1016.5 |
| 20260905223207 | 67 | 22 | 1.0 | 3.0 | 0.00 | 0.00 | 0.00 | 79 | 1016.5 |
| 20260905223105 | 67 | 22 | 0.0 | 3.0 | 0.00 | 0.00 | 0.00 | 79 | 1016.5 |
| 20260905222805 | 67 | 22 | 1.0 | 3.0 | 0.00 | 0.00 | 0.00 | 79 | 1016.4 |
| 20260905222704 | 67 | 22 | 1.0 | 3.0 | 0.00 | 0.00 | 0.00 | 78 | 1016.4 |
| 20260905222607 | 67 | 22 | 2.0 | 3.0 | 0.00 | 0.00 | 0.00 | 78 | 1016.4 |
| 20260905222505 | 67 | 22 | 2.0 | 3.0 | 0.00 | 0.00 | 0.00 | 78 | 1016.4 |
| 20260905222307 | 67 | 355 | 3.0 | 3.0 | 0.00 | 0.00 | 0.00 | 77 | 1016.4 |
| 20260905222203 | 67 | 355 | 2.0 | 3.0 | 0.00 | 0.00 | 0.00 | 77 | 1016.3 |
| 20260905222009 | 67 | 355 | 2.0 | 3.0 | 0.00 | 0.00 | 0.00 | 77 | 1016.3 |
| 20260905221905 | 67 | 355 | 2.0 | 3.0 | 0.00 | 0.00 | 0.00 | 77 | 1016.3 |
| 20260905221804 | 67 | 355 | 2.0 | 3.0 | 0.00 | 0.00 | 0.00 | 77 | 1016.3 |
| 20260905221707 | 67 | 355 | 2.0 | 3.0 | 0.00 | 0.00 | 0.00 | 77 | 1016.3 |
| 20260905221505 | 67 | 209 | 1.0 | 2.0 | 0.00 | 0.00 | 0.00 | 77 | 1016.3 |
| 20260905221407 | 67 | 209 | 1.0 | 2.0 | 0.00 | 0.00 | 0.00 | 77 | 1016.3 |
| 20260905221304 | 67 | 209 | 1.0 | 2.0 | 0.00 | 0.00 | 0.00 | 77 | 1016.3 |
| 20260905221204 | 67 | 209 | 1.0 | 3.0 | 0.00 | 0.00 | 0.00 | 77 | 1016.3 |
| 20260905221107 | 67 | 209 | 1.0 | 3.0 | 0.00 | 0.00 | 0.00 | 77 | 1016.3 |
| 20260905221005 | 67 | 209 | 1.0 | 3.0 | 0.00 | 0.00 | 0.00 | 76 | 1016.3 |
| 20260905220905 | 67 | 209 | 0.0 | 3.0 | 0.00 | 0.00 | 0.00 | 76 | 1016.3 |
| 20260905220807 | 67 | 209 | 0.0 | 3.0 | 0.00 | 0.00 | 0.00 | 76 | 1016.2 |
| 20260905220704 | 67 | 209 | 0.0 | 3.0 | 0.00 | 0.00 | 0.00 | 76 | 1016.3 |
| 20260905220604 | 67 | 209 | 1.0 | 3.0 | 0.00 | 0.00 | 0.00 | 76 | 1016.2 |
| 20260905220507 | 67 | 209 | 1.0 | 3.0 | 0.00 | 0.00 | 0.00 | 76 | 1016.2 |
| 20260905220404 | 67 | 209 | 1.0 | 3.0 | 0.00 | 0.00 | 0.00 | 77 | 1016.3 |
| 20260905220304 | 67 | 209 | 2.0 | 3.0 | 0.00 | 0.00 | 0.00 | 77 | 1016.2 |
| 20260905220207 | 67 | 209 | 2.0 | 3.0 | 0.00 | 0.00 | 0.00 | 77 | 1016.3 |
| 20260905220120 | 67 | 209 | 3.0 | 3.0 | 0.00 | 0.00 | 0.00 | 77 | 1016.2 |
| 20260905220010 | 67 | 209 | 3.0 | 3.0 | 0.00 | 0.00 | 0.00 | 77 | 1016.2 |
| 20260905215908 | 67 | 209 | 3.0 | 3.0 | 0.00 | 0.00 | 0.00 | 77 | 1016.3 |
| 20260905215806 | 67 | 209 | 2.0 | 3.0 | 0.00 | 0.00 | 0.00 | 78 | 1016.2 |
| 20260905215706 | 67 | 209 | 2.0 | 3.0 | 0.00 | 0.00 | 0.00 | 78 | 1016.3 |
| 20260905215608 | 67 | 209 | 3.0 | 3.0 | 0.00 | 0.00 | 0.00 | 78 | 1016.2 |
| 20260905215505 | 67 | 209 | 3.0 | 3.0 | 0.00 | 0.00 | 0.00 | 78 | 1016.2 |
| 20260905215008 | 67 | 148 | 2.0 | 2.0 | 0.00 | 0.00 | 0.00 | 77 | 1016.1 |
| 20260905214905 | 67 | 148 | 1.0 | 2.0 | 0.00 | 0.00 | 0.00 | 78 | 1016.1 |
| 20260905214806 | 67 | 148 | 1.0 | 2.0 | 0.00 | 0.00 | 0.00 | 78 | 1016.2 |
| 20260905214708 | 67 | 148 | 1.0 | 2.0 | 0.00 | 0.00 | 0.00 | 78 | 1016.1 |
| 20260905214605 | 67 | 148 | 1.0 | 2.0 | 0.00 | 0.00 | 0.00 | 78 | 1016.1 |
| 20260905214506 | 67 | 148 | 0.0 | 0.0 | 0.00 | 0.00 | 0.00 | 78 | 1016.1 |
| 20260905214407 | 67 | 148 | 0.0 | 1.0 | 0.00 | 0.00 | 0.00 | 78 | 1016.1 |
| 20260905214305 | 68 | 148 | 0.0 | 1.0 | 0.00 | 0.00 | 0.00 | 78 | 1016.1 |
| 20260905214205 | 68 | 148 | 0.0 | 1.0 | 0.00 | 0.00 | 0.00 | 78 | 1016.1 |
| 20260905214108 | 68 | 148 | 0.0 | 1.0 | 0.00 | 0.00 | 0.00 | 78 | 1016.1 |
| 20260905214006 | 68 | 148 | 0.0 | 1.0 | 0.00 | 0.00 | 0.00 | 78 | 1016.1 |
| 20260905213905 | 68 | 148 | 0.0 | 2.0 | 0.00 | 0.00 | 0.00 | 78 | 1016.1 |
| 20260905213808 | 68 | 148 | 0.0 | 2.0 | 0.00 | 0.00 | 0.00 | 78 | 1016.1 |
| 20260905213705 | 68 | 148 | 0.0 | 2.0 | 0.00 | 0.00 | 0.00 | 78 | 1016.1 |
| 20260905213605 | 68 | 148 | 0.0 | 2.0 | 0.00 | 0.00 | 0.00 | 78 | 1016.1 |
| 20260905213508 | 68 | 148 | 0.0 | 2.0 | 0.00 | 0.00 | 0.00 | 78 | 1016.1 |
| 20260905213405 | 68 | 148 | 0.0 | 3.0 | 0.00 | 0.00 | 0.00 | 77 | 1016.1 |
| 20260905213305 | 68 | 148 | 1.0 | 3.0 | 0.00 | 0.00 | 0.00 | 77 | 1016.1 |
| 20260905213208 | 68 | 148 | 0.0 | 3.0 | 0.00 | 0.00 | 0.00 | 77 | 1016.2 |
| 20260905213105 | 68 | 148 | 0.0 | 3.0 | 0.00 | 0.00 | 0.00 | 76 | 1016.2 |
| 20260905213006 | 68 | 148 | 1.0 | 3.0 | 0.00 | 0.00 | 0.00 | 76 | 1016.1 |
| 20260905212908 | 68 | 148 | 1.0 | 3.0 | 0.00 | 0.00 | 0.00 | 76 | 1016.2 |
| 20260905212806 | 68 | 148 | 1.0 | 3.0 | 0.00 | 0.00 | 0.00 | 76 | 1016.2 |
| 20260905212705 | 69 | 148 | 2.0 | 3.0 | 0.00 | 0.00 | 0.00 | 76 | 1016.2 |
| 20260905212609 | 69 | 148 | 1.0 | 3.0 | 0.00 | 0.00 | 0.00 | 76 | 1016.1 |
| 20260905212505 | 69 | 148 | 1.0 | 3.0 | 0.00 | 0.00 | 0.00 | 76 | 1016.2 |
| 20260905212206 | 69 | 148 | 0.0 | 0.0 | 0.00 | 0.00 | 0.00 | 75 | 1016.1 |
| 20260905212105 | 69 | 148 | 0.0 | 0.0 | 0.00 | 0.00 | 0.00 | 75 | 1016.1 |
| 20260905212011 | 69 | 148 | 0.0 | 1.0 | 0.00 | 0.00 | 0.00 | 75 | 1016.1 |
| 20260905211805 | 69 | 148 | 0.0 | 2.0 | 0.00 | 0.00 | 0.00 | 74 | 1016.1 |
| 20260905211709 | 69 | 148 | 0.0 | 2.0 | 0.00 | 0.00 | 0.00 | 74 | 1016.0 |
| 20260905211605 | 69 | 148 | 0.0 | 2.0 | 0.00 | 0.00 | 0.00 | 74 | 1016.0 |
| 20260905211505 | 69 | 148 | 0.0 | 2.0 | 0.00 | 0.00 | 0.00 | 74 | 1016.0 |
| 20260905211408 | 69 | 148 | 0.0 | 2.0 | 0.00 | 0.00 | 0.00 | 74 | 1016.0 |
| 20260905211306 | 69 | 148 | 0.0 | 2.0 | 0.00 | 0.00 | 0.00 | 74 | 1016.0 |
| 20260905211205 | 69 | 148 | 0.0 | 3.0 | 0.00 | 0.00 | 0.00 | 74 | 1016.0 |
| 20260905211006 | 69 | 148 | 0.0 | 3.0 | 0.00 | 0.00 | 0.00 | 74 | 1016.0 |
| 20260905210905 | 69 | 148 | 0.0 | 3.0 | 0.00 | 0.00 | 0.00 | 74 | 1016.0 |
| 20260905210808 | 69 | 197 | 0.0 | 3.0 | 0.00 | 0.00 | 0.00 | 74 | 1015.9 |
| 20260905210706 | 69 | 197 | 0.0 | 3.0 | 0.00 | 0.00 | 0.00 | 74 | 1015.9 |
| 20260905210605 | 69 | 197 | 1.0 | 3.0 | 0.00 | 0.00 | 0.00 | 74 | 1015.9 |
| 20260905210508 | 69 | 197 | 1.0 | 3.0 | 0.00 | 0.00 | 0.00 | 74 | 1015.9 |
| 20260905210406 | 69 | 197 | 0.0 | 3.0 | 0.00 | 0.00 | 0.00 | 74 | 1015.9 |
| 20260905210105 | 69 | 197 | 1.0 | 3.0 | 0.00 | 0.00 | 0.00 | 74 | 1015.9 |
| 20260905210009 | 69 | 197 | 2.0 | 3.0 | 0.00 | 0.00 | 0.00 | 74 | 1015.9 |
| 20260905205908 | 69 | 197 | 2.0 | 3.0 | 0.00 | 0.00 | 0.00 | 74 | 1015.9 |
| 20260905205608 | 69 | 197 | 2.0 | 3.0 | 0.00 | 0.00 | 0.00 | 74 | 1015.9 |
| 20260905205506 | 69 | 197 | 2.0 | 4.0 | 0.00 | 0.00 | 0.00 | 73 | 1015.9 |
| 20260905205405 | 69 | 197 | 1.0 | 4.0 | 0.00 | 0.00 | 0.00 | 73 | 1015.9 |
| 20260905205308 | 69 | 197 | 1.0 | 4.0 | 0.00 | 0.00 | 0.00 | 73 | 1015.9 |
| 20260905205105 | 69 | 197 | 2.0 | 4.0 | 0.00 | 0.00 | 0.00 | 73 | 1015.8 |
| 20260905205011 | 69 | 197 | 2.0 | 4.0 | 0.00 | 0.00 | 0.00 | 74 | 1015.8 |
| 20260905204905 | 69 | 197 | 2.0 | 4.0 | 0.00 | 0.00 | 0.00 | 74 | 1015.8 |
| 20260905204806 | 69 | 197 | 3.0 | 4.0 | 0.00 | 0.00 | 0.00 | 74 | 1015.9 |
| 20260905204708 | 69 | 197 | 3.0 | 4.0 | 0.00 | 0.00 | 0.00 | 74 | 1015.9 |
| 20260905204605 | 69 | 197 | 3.0 | 4.0 | 0.00 | 0.00 | 0.00 | 74 | 1015.9 |
| 20260905204408 | 69 | 197 | 3.0 | 4.0 | 0.00 | 0.00 | 0.00 | 74 | 1015.9 |
| 20260905204205 | 69 | 190 | 3.0 | 4.0 | 0.00 | 0.00 | 0.00 | 74 | 1015.9 |
| 20260905203905 | 69 | 190 | 2.0 | 4.0 | 0.00 | 0.00 | 0.00 | 73 | 1015.9 |
| 20260905203809 | 69 | 190 | 1.0 | 4.0 | 0.00 | 0.00 | 0.00 | 73 | 1015.9 |
| 20260905203605 | 69 | 190 | 3.0 | 4.0 | 0.00 | 0.00 | 0.00 | 73 | 1015.9 |
| 20260905203405 | 69 | 190 | 3.0 | 5.0 | 0.00 | 0.00 | 0.00 | 72 | 1016.0 |
| 20260905203305 | 69 | 190 | 3.0 | 5.0 | 0.00 | 0.00 | 0.00 | 72 | 1015.9 |
| 20260905203208 | 69 | 190 | 3.0 | 5.0 | 0.00 | 0.00 | 0.00 | 72 | 1015.9 |
| 20260905203106 | 69 | 190 | 3.0 | 5.0 | 0.00 | 0.00 | 0.00 | 72 | 1015.9 |
| 20260905203006 | 69 | 190 | 2.0 | 5.0 | 0.00 | 0.00 | 0.00 | 72 | 1016.0 |
| 20260905202908 | 69 | 190 | 3.0 | 5.0 | 0.00 | 0.00 | 0.00 | 72 | 1016.0 |
| 20260905202805 | 69 | 190 | 3.0 | 5.0 | 0.00 | 0.00 | 0.00 | 72 | 1016.0 |
| 20260905202705 | 69 | 190 | 4.0 | 5.0 | 0.00 | 0.00 | 0.00 | 72 | 1015.9 |
| 20260905202608 | 69 | 190 | 3.0 | 5.0 | 0.00 | 0.00 | 0.00 | 72 | 1015.9 |
| 20260905202506 | 70 | 190 | 3.0 | 5.0 | 0.00 | 0.00 | 0.00 | 72 | 1016.0 |
| 20260905202308 | 70 | 213 | 3.0 | 4.0 | 0.00 | 0.00 | 0.00 | 71 | 1015.9 |
| 20260905202105 | 70 | 213 | 2.0 | 4.0 | 0.00 | 0.00 | 0.00 | 71 | 1015.9 |
| 20260905202010 | 70 | 213 | 2.0 | 4.0 | 0.00 | 0.00 | 0.00 | 71 | 1015.9 |
| 20260905201905 | 70 | 213 | 2.0 | 4.0 | 0.00 | 0.00 | 0.00 | 71 | 1015.9 |
| 20260905201806 | 70 | 213 | 2.0 | 4.0 | 0.00 | 0.00 | 0.00 | 72 | 1015.9 |
| 20260905201709 | 70 | 213 | 2.0 | 4.0 | 0.00 | 0.00 | 0.00 | 72 | 1015.9 |
| 20260905201505 | 70 | 213 | 3.0 | 3.0 | 0.00 | 0.00 | 0.00 | 72 | 1015.9 |
| 20260905201408 | 70 | 213 | 3.0 | 3.0 | 0.00 | 0.00 | 0.00 | 72 | 1016.0 |
| 20260905201305 | 70 | 213 | 2.0 | 3.0 | 0.00 | 0.00 | 0.00 | 71 | 1015.9 |
| 20260905201204 | 70 | 213 | 2.0 | 3.0 | 0.00 | 0.00 | 0.00 | 71 | 1016.0 |
| 20260905201107 | 70 | 213 | 2.0 | 3.0 | 0.00 | 0.00 | 0.00 | 72 | 1015.9 |
| 20260905201006 | 70 | 213 | 2.0 | 3.0 | 0.00 | 0.00 | 0.00 | 72 | 1015.9 |
| 20260905200905 | 70 | 213 | 2.0 | 2.0 | 0.00 | 0.00 | 0.00 | 72 | 1015.9 |
| 20260905200808 | 70 | 213 | 2.0 | 2.0 | 0.00 | 0.00 | 0.00 | 72 | 1015.9 |
| 20260905200706 | 70 | 213 | 1.0 | 2.0 | 0.00 | 0.00 | 0.00 | 72 | 1015.9 |
| 20260905200605 | 70 | 213 | 0.0 | 2.0 | 0.00 | 0.00 | 0.00 | 72 | 1015.9 |
| 20260905200508 | 70 | 213 | 1.0 | 2.0 | 0.00 | 0.00 | 0.00 | 72 | 1015.8 |
| 20260905200405 | 70 | 213 | 2.0 | 2.0 | 0.00 | 0.00 | 0.00 | 72 | 1015.8 |
| 20260905200305 | 70 | 213 | 2.0 | 2.0 | 0.00 | 0.00 | 0.00 | 71 | 1015.8 |
| 20260905200208 | 71 | 213 | 0.0 | 2.0 | 0.00 | 0.00 | 0.00 | 71 | 1015.7 |
| 20260905200121 | 71 | 213 | 0.0 | 2.0 | 0.00 | 0.00 | 0.00 | 71 | 1015.7 |
| 20260905200009 | 71 | 213 | 0.0 | 2.0 | 0.00 | 0.00 | 0.00 | 72 | 1015.7 |
| 20260905195908 | 71 | 213 | 0.0 | 2.0 | 0.00 | 0.00 | 0.00 | 72 | 1015.8 |
| 20260905195805 | 71 | 213 | 1.0 | 2.0 | 0.00 | 0.00 | 0.00 | 72 | 1015.8 |
| 20260905195608 | 71 | 213 | 1.0 | 2.0 | 0.00 | 0.00 | 0.00 | 72 | 1015.8 |
| 20260905195506 | 71 | 213 | 1.0 | 2.0 | 0.00 | 0.00 | 0.00 | 71 | 1015.7 |
| 20260905195405 | 71 | 213 | 0.0 | 2.0 | 0.00 | 0.00 | 0.00 | 70 | 1015.8 |
| 20260905195308 | 72 | 213 | 0.0 | 2.0 | 0.00 | 0.00 | 0.00 | 70 | 1015.8 |
| 20260905195205 | 72 | 213 | 1.0 | 2.0 | 0.00 | 0.00 | 0.00 | 70 | 1015.7 |
| 20260905195105 | 72 | 213 | 1.0 | 2.0 | 0.00 | 0.00 | 0.00 | 69 | 1015.7 |
| 20260905195010 | 72 | 213 | 2.0 | 2.0 | 0.00 | 0.00 | 0.00 | 69 | 1015.7 |
| 20260905194904 | 72 | 213 | 1.0 | 1.0 | 0.00 | 0.00 | 0.00 | 69 | 1015.7 |
| 20260905194708 | 72 | 213 | 0.0 | 2.0 | 0.00 | 0.00 | 0.00 | 69 | 1015.7 |
| 20260905194606 | 72 | 213 | 0.0 | 2.0 | 0.00 | 0.00 | 0.00 | 69 | 1015.7 |
| 20260905194505 | 72 | 213 | 0.0 | 2.0 | 0.00 | 0.00 | 0.00 | 68 | 1015.8 |
| 20260905194305 | 72 | 213 | 0.0 | 2.0 | 0.00 | 0.00 | 0.00 | 68 | 1015.7 |
| 20260905194206 | 72 | 213 | 0.0 | 2.0 | 0.00 | 0.00 | 0.00 | 68 | 1015.7 |
| 20260905194108 | 72 | 213 | 0.0 | 2.0 | 0.00 | 0.00 | 0.00 | 68 | 1015.7 |
| 20260905193808 | 72 | 213 | 0.0 | 3.0 | 0.00 | 0.00 | 0.00 | 68 | 1015.6 |
| 20260905193706 | 72 | 213 | 1.0 | 3.0 | 0.00 | 0.00 | 0.00 | 68 | 1015.6 |
| 20260905193605 | 73 | 213 | 2.0 | 3.0 | 0.00 | 0.00 | 0.00 | 67 | 1015.6 |
| 20260905193508 | 73 | 213 | 1.0 | 3.0 | 0.00 | 0.00 | 0.00 | 67 | 1015.6 |
| 20260905193405 | 73 | 213 | 2.0 | 3.0 | 0.00 | 0.00 | 0.00 | 67 | 1015.6 |
| 20260905193208 | 73 | 213 | 1.0 | 3.0 | 0.00 | 0.00 | 0.00 | 67 | 1015.6 |
| 20260905193106 | 73 | 213 | 2.0 | 3.0 | 0.00 | 0.00 | 0.00 | 68 | 1015.6 |
| 20260905192907 | 73 | 213 | 0.0 | 3.0 | 0.00 | 0.00 | 0.00 | 67 | 1015.5 |
| 20260905192804 | 73 | 213 | 2.0 | 3.0 | 0.00 | 0.00 | 0.00 | 66 | 1015.5 |
| 20260905192607 | 73 | 213 | 1.0 | 3.0 | 0.00 | 0.00 | 0.00 | 66 | 1015.5 |
| 20260905192506 | 73 | 213 | 1.0 | 4.0 | 0.00 | 0.00 | 0.00 | 65 | 1015.5 |
| 20260905192405 | 73 | 213 | 1.0 | 4.0 | 0.00 | 0.00 | 0.00 | 65 | 1015.5 |
| 20260905192308 | 73 | 213 | 1.0 | 4.0 | 0.00 | 0.00 | 0.00 | 65 | 1015.5 |
| 20260905192205 | 73 | 213 | 2.0 | 4.0 | 0.00 | 0.00 | 0.00 | 64 | 1015.5 |
| 20260905192106 | 73 | 213 | 3.0 | 4.0 | 0.00 | 0.00 | 0.00 | 65 | 1015.4 |
| 20260905191905 | 73 | 213 | 2.0 | 4.0 | 0.00 | 0.00 | 0.00 | 64 | 1015.5 |
| 20260905191708 | 73 | 213 | 2.0 | 5.0 | 0.00 | 0.00 | 0.00 | 64 | 1015.5 |
| 20260905191606 | 73 | 213 | 3.0 | 5.0 | 0.00 | 0.00 | 0.00 | 64 | 1015.5 |
| 20260905191407 | 73 | 213 | 3.0 | 5.0 | 0.00 | 0.00 | 0.00 | 64 | 1015.4 |
| 20260905191305 | 73 | 213 | 3.0 | 5.0 | 0.00 | 0.00 | 0.00 | 65 | 1015.4 |
| 20260905191108 | 74 | 213 | 2.0 | 5.0 | 0.00 | 0.00 | 0.00 | 65 | 1015.4 |
| 20260905190905 | 74 | 213 | 3.0 | 5.0 | 0.00 | 0.00 | 0.00 | 65 | 1015.3 |
| 20260905190605 | 74 | 223 | 5.0 | 5.0 | 0.00 | 0.00 | 0.00 | 65 | 1015.2 |
| 20260905190405 | 74 | 107 | 3.0 | 3.0 | 0.00 | 0.00 | 0.00 | 65 | 1015.2 |
| 20260905190305 | 74 | 107 | 2.0 | 3.0 | 0.00 | 0.00 | 0.00 | 64 | 1015.2 |
| 20260905190208 | 74 | 107 | 2.0 | 3.0 | 0.00 | 0.00 | 0.00 | 63 | 1015.2 |
| 20260905190105 | 74 | 107 | 2.0 | 3.0 | 0.00 | 0.00 | 0.00 | 63 | 1015.2 |